DK8SN Weather Reports


time (UTC)temp
C
wind
direction
speed
KPH
gust
KPH
rain 1hr
cm
rain 24hr
cm
rain mn
cm
humidity
%
barometer
mb
20260507084505 9 108 3.2 9.7 0.00 0.64 0.15 99 1012.1
20260507084405 9 105 4.8 9.7 0.00 0.64 0.15 99 1012.0
20260507084305 9 97 3.2 9.7 0.00 0.64 0.15 99 1012.1
20260507084204 9 95 3.2 9.7 0.00 0.64 0.15 99 1012.1
20260507084104 9 97 3.2 9.7 0.00 0.64 0.15 99 1012.1
20260507084005 9 98 3.2 9.7 0.03 0.64 0.15 99 1012.1
20260507083805 9 90 3.2 9.7 0.03 0.64 0.15 99 1012.1
20260507083707 9 86 3.2 9.7 0.03 0.64 0.15 99 1012.1
20260507083204 9 81 3.2 9.7 0.03 0.64 0.15 99 1012.1
20260507083105 9 81 3.2 9.7 0.03 0.64 0.15 99 1012.0
20260507083005 9 78 3.2 9.7 0.03 0.64 0.15 99 1012.0
20260507082905 9 77 3.2 8.0 0.03 0.64 0.15 99 1012.0
20260507082708 9 74 3.2 8.0 0.03 0.64 0.15 99 1012.1
20260507082605 9 67 3.2 8.0 0.03 0.64 0.15 99 1011.9
20260507082505 9 63 3.2 8.0 0.03 0.64 0.15 99 1012.0
20260507082405 9 70 4.8 8.0 0.03 0.64 0.15 99 1012.1
20260507082306 9 78 3.2 8.0 0.03 0.64 0.15 99 1011.9
20260507082205 9 69 4.8 8.0 0.03 0.64 0.15 99 1011.8
20260507082105 9 62 3.2 9.7 0.03 0.64 0.15 99 1011.8
20260507082005 9 68 3.2 12.9 0.03 0.64 0.15 99 1012.0
20260507081905 9 69 3.2 12.9 0.03 0.64 0.15 99 1011.9
20260507081705 8 60 3.2 12.9 0.03 0.64 0.15 99 1011.9
20260507081605 8 64 3.2 12.9 0.03 0.64 0.15 99 1011.7
20260507081505 8 65 3.2 12.9 0.03 0.64 0.15 99 1011.7
20260507081404 8 63 3.2 12.9 0.03 0.64 0.15 99 1011.9
20260507081305 8 49 3.2 12.9 0.03 0.64 0.15 99 1011.8
20260507081104 8 50 4.8 14.5 0.03 0.64 0.15 99 1011.9
20260507081005 8 39 3.2 14.5 0.03 0.64 0.15 99 1011.9
20260507080905 8 35 3.2 14.5 0.03 0.64 0.15 99 1011.8
20260507080805 8 38 3.2 14.5 0.03 0.64 0.15 99 1011.7
20260507080707 8 36 3.2 14.5 0.03 0.64 0.15 99 1011.7
20260507080605 8 33 3.2 14.5 0.03 0.64 0.15 99 1011.8
20260507080504 8 29 3.2 14.5 0.03 0.64 0.15 99 1011.7
20260507080305 8 28 4.8 14.5 0.03 0.64 0.15 99 1011.8
20260507080104 8 18 3.2 11.3 0.03 0.64 0.15 99 1011.8
20260507080005 8 18 3.2 11.3 0.03 0.64 0.15 99 1011.7
20260507075905 8 18 3.2 11.3 0.03 0.64 0.15 99 1011.9
20260507075708 8 25 3.2 8.0 0.03 0.64 0.15 99 1011.7
20260507075604 8 28 1.6 8.0 0.03 0.64 0.15 99 1011.8
20260507075504 8 28 0.0 9.7 0.03 0.64 0.15 99 1011.7
20260507075405 8 25 3.2 9.7 0.03 0.64 0.15 99 1011.6
20260507075307 8 33 1.6 9.7 0.03 0.64 0.15 99 1011.5
20260507075105 8 36 3.2 9.7 0.03 0.64 0.15 99 1011.7
20260507075004 8 42 3.2 9.7 0.03 0.64 0.15 99 1011.7
20260507074905 8 43 1.6 9.7 0.03 0.64 0.15 99 1011.6
20260507074804 8 43 1.6 9.7 0.03 0.64 0.15 99 1011.5
20260507074708 8 35 1.6 9.7 0.03 0.64 0.15 99 1011.6
20260507074604 8 32 3.2 9.7 0.03 0.64 0.15 99 1011.5
20260507074305 8 20 1.6 6.4 0.03 0.64 0.15 99 1011.5
20260507074205 8 17 3.2 6.4 0.03 0.64 0.15 99 1011.5
20260507073905 8 6 1.6 6.4 0.00 0.61 0.13 99 1011.5
20260507073805 8 5 3.2 6.4 0.00 0.61 0.13 99 1011.6
20260507073405 7 7 1.6 8.0 0.00 0.61 0.13 99 1011.4
20260507073304 7 7 1.6 8.0 0.00 0.61 0.13 99 1011.3
20260507073104 7 6 1.6 9.7 0.00 0.61 0.13 99 1011.5
20260507073005 7 6 1.6 9.7 0.00 0.61 0.13 99 1011.3
20260507072908 7 8 1.6 9.7 0.00 0.61 0.13 99 1011.5
20260507072805 7 11 1.6 9.7 0.00 0.61 0.13 99 1011.4
20260507072604 7 20 4.8 9.7 0.00 0.61 0.13 99 1011.3
20260507072505 7 17 3.2 9.7 0.03 0.61 0.13 99 1011.4
20260507072404 7 17 1.6 9.7 0.03 0.61 0.13 99 1011.4
20260507072204 8 27 3.2 8.0 0.03 0.61 0.13 99 1011.3
20260507072105 7 26 1.6 8.0 0.03 0.61 0.13 99 1011.3
20260507072008 7 27 0.0 8.0 0.03 0.61 0.13 99 1011.3
20260507071905 7 23 1.6 8.0 0.03 0.61 0.13 99 1011.3
20260507071805 7 22 3.2 8.0 0.03 0.61 0.13 99 1011.2
20260507071705 7 27 3.2 8.0 0.03 0.61 0.13 99 1011.3
20260507071604 7 17 3.2 8.0 0.03 0.61 0.13 99 1011.2
20260507071505 7 13 3.2 8.0 0.03 0.61 0.13 99 1011.3
20260507071404 7 17 3.2 8.0 0.03 0.61 0.13 99 1011.2
20260507071305 7 17 4.8 8.0 0.03 0.61 0.13 99 1011.3
20260507071205 7 11 3.2 6.4 0.03 0.61 0.13 99 1011.2
20260507071105 7 17 3.2 8.0 0.03 0.61 0.13 99 1011.1
20260507071008 7 23 1.6 8.0 0.03 0.61 0.13 99 1011.2
20260507070905 7 27 3.2 8.0 0.03 0.61 0.13 99 1011.2
20260507070804 7 28 3.2 8.0 0.03 0.61 0.13 99 1011.2
20260507070705 7 22 1.6 8.0 0.03 0.61 0.13 99 1011.2
20260507070605 7 22 3.2 8.0 0.03 0.61 0.13 99 1011.2
20260507070505 7 22 3.2 8.0 0.03 0.61 0.13 99 1011.2
20260507070405 7 19 3.2 8.0 0.03 0.61 0.13 99 1011.2
20260507070305 7 27 0.0 8.0 0.03 0.61 0.13 99 1011.2
20260507070205 7 27 3.2 8.0 0.03 0.61 0.13 99 1011.1
20260507070108 7 22 1.6 8.0 0.03 0.61 0.13 99 1011.0
20260507065904 7 16 3.2 8.0 0.03 0.61 0.13 99 1011.1
20260507065805 7 18 3.2 8.0 0.03 0.61 0.13 99 1011.1
20260507065704 7 24 3.2 8.0 0.03 0.61 0.13 99 1011.1
20260507065605 7 27 3.2 8.0 0.03 0.61 0.13 99 1011.1
20260507065504 7 27 3.2 8.0 0.03 0.61 0.13 99 1011.0
20260507065404 7 29 3.2 8.0 0.03 0.61 0.13 99 1011.1
20260507065306 7 21 3.2 8.0 0.03 0.61 0.13 99 1011.1
20260507065105 7 20 3.2 8.0 0.03 0.61 0.13 99 1011.1
20260507065005 7 22 3.2 8.0 0.03 0.61 0.13 99 1011.1
20260507064905 7 21 0.0 8.0 0.03 0.61 0.13 99 1011.0
20260507064805 7 20 3.2 8.0 0.03 0.61 0.13 99 1011.0
20260507064705 7 19 3.2 8.0 0.03 0.61 0.13 99 1011.1
20260507064604 7 16 3.2 8.0 0.05 0.61 0.13 99 1011.0
20260507064505 7 20 3.2 8.0 0.05 0.61 0.13 99 1011.1
20260507064404 7 22 1.6 8.0 0.05 0.61 0.13 99 1011.1
20260507064307 7 19 1.6 8.0 0.05 0.61 0.13 99 1011.0
20260507064205 7 28 1.6 8.0 0.05 0.61 0.13 99 1011.0
20260507064104 7 30 1.6 8.0 0.05 0.61 0.13 99 1011.0
20260507064005 7 31 3.2 8.0 0.05 0.61 0.13 99 1010.9
20260507063805 7 24 0.0 8.0 0.05 0.61 0.13 99 1011.0
20260507063705 7 20 3.2 8.0 0.05 0.61 0.13 99 1011.0
20260507063605 7 21 1.6 8.0 0.10 0.61 0.13 99 1010.9
20260507063405 7 16 3.2 8.0 0.10 0.61 0.13 99 1011.0
20260507063308 7 16 1.6 6.4 0.10 0.61 0.13 99 1011.0
20260507063205 7 9 3.2 8.0 0.10 0.61 0.13 99 1011.0
20260507063105 7 6 3.2 8.0 0.10 0.61 0.13 99 1010.8
20260507063005 7 8 3.2 8.0 0.10 0.61 0.13 99 1010.9
20260507062905 7 5 3.2 8.0 0.10 0.61 0.13 99 1010.9
20260507062805 7 5 1.6 8.0 0.10 0.61 0.13 99 1010.9
20260507062704 7 5 3.2 8.0 0.10 0.61 0.13 99 1011.0
20260507062605 7 6 1.6 8.0 0.10 0.61 0.13 99 1010.9
20260507062505 7 9 1.6 8.0 0.05 0.56 0.10 99 1010.9
20260507062307 7 7 1.6 9.7 0.05 0.56 0.10 99 1010.9
20260507062205 7 8 4.8 12.9 0.05 0.56 0.10 99 1010.9
20260507062005 7 12 3.2 12.9 0.05 0.56 0.10 99 1010.9
20260507061905 7 9 1.6 12.9 0.05 0.56 0.10 99 1011.0
20260507061804 7 13 3.2 12.9 0.05 0.56 0.10 99 1010.9
20260507061705 7 16 3.2 12.9 0.05 0.56 0.10 99 1010.9
20260507061604 7 15 3.2 12.9 0.05 0.56 0.10 99 1011.0
20260507061508 7 12 3.2 12.9 0.05 0.56 0.10 99 1011.0
20260507061404 7 17 4.8 12.9 0.05 0.56 0.10 99 1010.8
20260507061305 7 23 6.4 12.9 0.05 0.56 0.10 99 1011.0
20260507061104 7 20 1.6 9.7 0.05 0.56 0.10 99 1010.8
20260507061005 7 20 3.2 9.7 0.05 0.56 0.10 99 1010.8
20260507060904 7 26 3.2 9.7 0.05 0.56 0.10 99 1010.9
20260507060607 7 23 1.6 11.3 0.05 0.56 0.10 99 1010.9
20260507060505 7 24 3.2 11.3 0.05 0.56 0.10 99 1010.8
20260507060405 7 20 3.2 11.3 0.05 0.56 0.10 99 1010.9
20260507060305 7 16 1.6 11.3 0.05 0.56 0.10 99 1010.8
20260507060104 7 16 3.2 11.3 0.05 0.56 0.10 99 1010.8
20260507060005 7 15 3.2 11.3 0.05 0.56 0.10 99 1010.7
20260507055904 7 10 3.2 11.3 0.05 0.56 0.10 99 1010.7
20260507055805 7 9 4.8 11.3 0.05 0.56 0.10 99 1010.8
20260507055607 7 8 3.2 8.0 0.05 0.56 0.10 99 1010.7
20260507055505 7 8 3.2 8.0 0.05 0.56 0.10 99 1010.8
20260507055404 7 8 1.6 8.0 0.05 0.56 0.10 99 1010.8
20260507055306 7 10 3.2 8.0 0.05 0.56 0.10 99 1010.8
20260507055204 7 12 3.2 8.0 0.05 0.56 0.10 99 1010.8
20260507055105 7 12 3.2 8.0 0.05 0.56 0.10 99 1010.6
20260507055004 7 9 3.2 8.0 0.05 0.56 0.10 99 1010.7
20260507054905 7 9 3.2 8.0 0.05 0.56 0.10 99 1010.7
20260507054805 7 10 3.2 8.0 0.05 0.56 0.10 99 1010.7
20260507054607 7 9 1.6 6.4 0.03 0.53 0.05 99 1010.8
20260507054405 7 13 0.0 6.4 0.03 0.53 0.05 99 1010.7
20260507054304 7 10 3.2 6.4 0.03 0.53 0.05 99 1010.6
20260507054204 7 8 3.2 6.4 0.03 0.53 0.05 99 1010.6
20260507054004 7 13 0.0 6.4 0.03 0.53 0.05 99 1010.6
20260507053905 7 13 3.2 6.4 0.03 0.53 0.05 99 1010.5
20260507053805 7 13 1.6 9.7 0.03 0.53 0.05 99 1010.7
20260507053707 7 8 3.2 9.7 0.00 0.51 0.03 99 1010.6
20260507053605 7 8 0.0 9.7 0.00 0.51 0.03 99 1010.6
20260507053505 7 8 1.6 9.7 0.00 0.51 0.03 99 1010.6
20260507053305 7 5 3.2 9.7 0.00 0.51 0.03 99 1010.5
20260507053204 7 8 3.2 9.7 0.00 0.51 0.03 99 1010.5
20260507053105 7 10 1.6 9.7 0.00 0.51 0.03 99 1010.6
20260507053005 7 15 1.6 9.7 0.00 0.51 0.03 99 1010.6
20260507052905 7 18 1.6 9.7 0.00 0.51 0.03 99 1010.6
20260507052805 7 22 3.2 9.7 0.00 0.51 0.03 99 1010.6
20260507052707 7 24 3.2 6.4 0.00 0.51 0.03 99 1010.6
20260507052605 7 28 0.0 6.4 0.00 0.51 0.03 99 1010.5
20260507052505 7 31 0.0 6.4 0.00 0.51 0.03 99 1010.5
20260507052405 7 30 1.6 6.4 0.00 0.51 0.03 99 1010.4
20260507052306 7 29 1.6 6.4 0.00 0.51 0.03 99 1010.4
20260507052104 7 20 1.6 6.4 0.00 0.51 0.03 99 1010.5
20260507052005 6 14 1.6 6.4 0.00 0.51 0.03 99 1010.4
20260507051805 6 15 1.6 6.4 0.00 0.51 0.03 99 1010.4
20260507051705 6 16 0.0 6.4 0.00 0.51 0.03 99 1010.5
20260507051305 6 15 1.6 4.8 0.00 0.51 0.03 99 1010.0
20260507051105 6 20 0.0 4.8 0.00 0.51 0.03 99 1010.4
20260507051005 6 21 1.6 4.8 0.00 0.51 0.03 99 1010.2
20260507050905 6 19 0.0 4.8 0.00 0.51 0.03 99 1010.3
20260507050808 6 17 0.0 6.4 0.00 0.51 0.03 99 1010.2
20260507050705 6 15 0.0 6.4 0.00 0.51 0.03 99 1010.3
20260507050604 6 19 1.6 6.4 0.00 0.51 0.03 99 1010.2
20260507050505 6 17 1.6 6.4 0.00 0.51 0.03 99 1010.4
20260507050405 6 14 0.0 6.4 0.00 0.51 0.03 99 1010.3
20260507050305 6 13 0.0 6.4 0.00 0.51 0.03 99 1010.3
20260507050205 6 13 1.6 6.4 0.00 0.51 0.03 99 1010.2
20260507050105 6 13 3.2 6.4 0.00 0.51 0.03 99 1010.3
20260507045904 6 11 1.6 6.4 0.00 0.51 0.03 99 1010.3
20260507045704 6 14 0.0 4.8 0.00 0.51 0.03 99 1010.2
20260507045605 6 11 1.6 4.8 0.00 0.51 0.03 99 1010.2
20260507045504 6 6 0.0 4.8 0.00 0.51 0.03 99 1010.0
20260507045405 6 7 1.6 4.8 0.00 0.51 0.03 99 1010.1
20260507045306 6 7 1.6 4.8 0.00 0.51 0.03 99 1010.1
20260507045104 6 15 3.2 6.4 0.00 0.51 0.03 99 1010.0
20260507045005 6 13 0.0 6.4 0.00 0.51 0.03 99 1010.0
20260507044904 6 12 0.0 6.4 0.00 0.51 0.03 99 1010.2
20260507044808 6 13 0.0 6.4 0.00 0.51 0.03 99 1010.1
20260507044605 6 13 1.6 6.4 0.00 0.51 0.03 99 1010.0
20260507044505 6 19 0.0 8.0 0.00 0.51 0.03 99 1010.0
20260507044405 6 25 1.6 8.0 0.00 0.51 0.03 99 1010.0
20260507044304 6 29 0.0 8.0 0.00 0.51 0.03 99 1009.9
20260507044205 6 28 3.2 8.0 0.00 0.51 0.03 99 1009.9
20260507044005 6 29 3.2 8.0 0.00 0.51 0.03 99 1009.8
20260507043904 6 31 0.0 8.0 0.00 0.51 0.03 99 1009.9
20260507043808 6 31 0.0 8.0 0.00 0.51 0.03 99 1009.8
20260507043704 6 31 0.0 8.0 0.00 0.51 0.03 99 1009.8
20260507043505 6 36 4.8 8.0 0.00 0.51 0.03 99 1009.8
20260507043405 6 33 0.0 4.8 0.00 0.51 0.03 99 1009.8
20260507043304 6 29 0.0 4.8 0.00 0.51 0.03 99 1009.8
20260507043004 6 33 0.0 6.4 0.00 0.51 0.03 99 1009.8
20260507042908 6 32 0.0 6.4 0.00 0.51 0.03 99 1009.8
20260507042804 6 32 1.6 8.0 0.00 0.51 0.03 99 1009.8
20260507042705 6 35 1.6 8.0 0.00 0.51 0.03 99 1009.8
20260507042604 6 32 0.0 8.0 0.00 0.51 0.03 99 1009.7
20260507042404 6 27 0.0 8.0 0.00 0.51 0.03 99 1009.6
20260507042307 6 30 1.6 8.0 0.00 0.51 0.03 99 1009.6
20260507042204 6 33 0.0 8.0 0.00 0.51 0.03 99 1009.6
20260507042105 6 36 1.6 8.0 0.00 0.51 0.03 99 1009.6
20260507042005 6 34 3.2 8.0 0.00 0.51 0.03 99 1009.6
20260507041908 6 38 1.6 8.0 0.00 0.51 0.03 99 1009.6
20260507041804 6 47 3.2 9.7 0.00 0.51 0.03 99 1009.5
20260507041705 6 46 1.6 9.7 0.00 0.51 0.03 99 1009.6
20260507041604 6 45 0.0 9.7 0.00 0.51 0.03 99 1009.4
20260507041505 6 42 0.0 9.7 0.00 0.51 0.03 99 1009.4
20260507041405 6 41 3.2 9.7 0.00 0.51 0.03 99 1009.5
20260507041305 6 34 3.2 9.7 0.00 0.51 0.03 99 1009.4
20260507041205 6 27 3.2 9.7 0.00 0.51 0.03 99 1009.4
20260507041105 6 23 1.6 9.7 0.00 0.51 0.03 99 1009.4
20260507041005 6 21 1.6 9.7 0.00 0.51 0.03 99 1009.4
20260507040904 6 14 3.2 9.7 0.00 0.51 0.03 99 1009.3
20260507040808 6 4 1.6 8.0 0.00 0.51 0.03 99 1009.4
20260507040704 6 6 0.0 8.0 0.00 0.51 0.03 99 1009.4
20260507040505 6 6 3.2 8.0 0.00 0.51 0.03 99 1009.4
20260507040405 6 6 3.2 8.0 0.00 0.51 0.03 99 1009.4
20260507040305 6 8 3.2 8.0 0.00 0.51 0.03 99 1009.3
20260507040205 6 16 3.2 6.4 0.00 0.51 0.03 99 1009.4
20260507040105 6 18 0.0 6.4 0.00 0.51 0.03 99 1009.3
20260507040005 6 15 1.6 6.4 0.00 0.51 0.03 99 1009.3
20260507035904 6 16 3.2 6.4 0.00 0.51 0.03 99 1009.4
20260507035705 6 26 1.6 6.4 0.00 0.51 0.03 99 1009.5
20260507035605 6 32 3.2 6.4 0.00 0.51 0.03 99 1009.4
20260507035505 6 32 1.6 6.4 0.00 0.51 0.03 99 1009.3
20260507035405 6 34 3.2 6.4 0.00 0.51 0.03 99 1009.4
20260507035204 6 25 0.0 6.4 0.00 0.51 0.03 99 1009.3
20260507035105 6 23 0.0 6.4 0.00 0.51 0.03 99 1009.4
20260507035004 6 26 1.6 6.4 0.00 0.51 0.03 99 1009.3
20260507034908 6 27 1.6 6.4 0.00 0.51 0.03 99 1009.3
20260507034804 6 19 3.2 6.4 0.00 0.51 0.03 99 1009.2
20260507034705 6 10 0.0 6.4 0.00 0.51 0.03 99 1009.2
20260507034605 6 6 1.6 6.4 0.00 0.51 0.03 99 1009.3
20260507034505 6 6 0.0 6.4 0.00 0.51 0.03 99 1009.4
20260507034305 6 8 1.6 6.4 0.00 0.51 0.03 99 1009.3
20260507034205 6 6 1.6 6.4 0.00 0.51 0.03 99 1009.4
20260507034104 6 6 1.6 6.4 0.00 0.51 0.03 99 1009.2
20260507033905 6 3 3.2 6.4 0.00 0.51 0.03 99 1009.3
20260507033804 6 5 1.6 4.8 0.00 0.51 0.03 99 1009.3
20260507033705 6 8 0.0 4.8 0.00 0.51 0.03 99 1009.3
20260507033604 6 8 1.6 4.8 0.00 0.51 0.03 99 1009.2
20260507033505 6 8 3.2 4.8 0.00 0.51 0.03 99 1009.4
20260507033404 6 6 3.2 4.8 0.00 0.51 0.03 99 1009.2
20260507033205 6 6 0.0 6.4 0.00 0.51 0.03 99 1009.2
20260507033107 6 8 0.0 6.4 0.00 0.51 0.03 99 1009.4
20260507033005 6 10 1.6 6.4 0.00 0.51 0.03 99 1009.2
20260507032905 6 17 1.6 6.4 0.00 0.51 0.03 99 1009.2
20260507032805 6 23 1.6 6.4 0.00 0.51 0.03 99 1009.3
20260507032605 6 28 1.6 6.4 0.00 0.51 0.03 99 1009.2
20260507032404 6 35 0.0 6.4 0.00 0.51 0.03 99 1009.2
20260507032306 6 38 3.2 6.4 0.00 0.51 0.03 99 1009.3
20260507032207 6 45 1.6 4.8 0.00 0.51 0.03 99 1009.1
20260507032105 6 40 0.0 4.8 0.00 0.51 0.03 99 1009.2
20260507032005 6 33 0.0 4.8 0.00 0.51 0.03 99 1009.2
20260507031904 6 24 0.0 4.8 0.00 0.51 0.03 99 1009.2
20260507031805 6 21 1.6 4.8 0.00 0.51 0.03 99 1009.2
20260507031704 6 15 0.0 4.8 0.00 0.51 0.03 99 1009.1
20260507031605 6 17 1.6 4.8 0.00 0.51 0.03 99 1009.1
20260507031207 6 8 0.0 4.8 0.00 0.51 0.03 99 1009.2
20260507031004 6 9 0.0 4.8 0.00 0.51 0.03 99 1009.2
20260507030905 6 12 3.2 4.8 0.00 0.51 0.03 99 1009.0
20260507030804 6 8 1.6 4.8 0.00 0.51 0.03 99 1009.1
20260507030705 6 9 0.0 4.8 0.00 0.51 0.03 99 1009.1
20260507030604 6 10 0.0 4.8 0.00 0.51 0.03 99 1009.2
20260507030405 6 25 0.0 4.8 0.00 0.51 0.03 99 1009.1
20260507030307 6 38 1.6 4.8 0.00 0.51 0.03 99 1009.1
20260507030205 6 47 0.0 4.8 0.00 0.51 0.03 99 1009.0
20260507030104 6 51 0.0 4.8 0.00 0.51 0.03 99 1009.2
20260507030005 6 51 0.0 4.8 0.00 0.51 0.03 99 1009.1
20260507025905 6 50 0.0 4.8 0.00 0.51 0.03 99 1009.2
20260507025805 6 44 0.0 4.8 0.00 0.51 0.03 99 1009.1
20260507025704 6 37 0.0 4.8 0.00 0.51 0.03 99 1009.0
20260507025605 6 35 0.0 4.8 0.00 0.51 0.03 99 1009.1
20260507025408 6 35 0.0 4.8 0.00 0.51 0.03 99 1009.1
20260507025306 6 27 0.0 4.8 0.00 0.51 0.03 99 1009.2
20260507025204 6 18 0.0 6.4 0.00 0.51 0.03 99 1009.1
20260507025105 6 16 0.0 6.4 0.00 0.51 0.03 99 1009.1
20260507025005 6 19 0.0 6.4 0.00 0.51 0.03 99 1009.1
20260507024805 6 21 0.0 6.4 0.00 0.51 0.03 99 1009.0
20260507024604 6 35 0.0 6.4 0.00 0.51 0.03 99 1009.1
20260507024505 6 36 0.0 6.4 0.00 0.51 0.03 99 1009.0
20260507024405 6 36 0.0 6.4 0.00 0.51 0.03 99 1009.1
20260507024307 6 42 1.6 6.4 0.00 0.51 0.03 99 1009.1
20260507024205 6 48 1.6 6.4 0.00 0.51 0.03 99 1009.1
20260507024104 6 49 1.6 6.4 0.00 0.51 0.03 99 1009.0
20260507024005 6 52 3.2 6.4 0.00 0.51 0.03 99 1009.0
20260507023905 6 58 3.2 6.4 0.00 0.51 0.03 99 1008.9
20260507023805 6 63 1.6 6.4 0.00 0.51 0.03 99 1009.2
20260507023705 6 67 0.0 6.4 0.00 0.51 0.03 99 1009.1
20260507023605 6 63 0.0 8.0 0.00 0.51 0.03 99 1009.0
20260507023504 6 54 0.0 8.0 0.00 0.51 0.03 99 1009.1
20260507023405 6 58 1.6 8.0 0.00 0.51 0.03 99 1009.1
20260507023307 6 59 1.6 8.0 0.00 0.51 0.03 99 1008.9
20260507023205 6 66 0.0 8.0 0.00 0.51 0.03 99 1009.1
20260507023105 6 61 0.0 8.0 0.00 0.51 0.03 99 1009.0
20260507023005 6 48 0.0 8.0 0.00 0.51 0.03 99 1009.1
20260507022905 6 43 0.0 8.0 0.00 0.51 0.03 99 1008.9
20260507022804 6 37 1.6 8.0 0.00 0.51 0.03 99 1009.0
20260507022705 6 36 0.0 8.0 0.00 0.51 0.03 99 1008.9
20260507022504 6 38 0.0 6.4 0.00 0.51 0.03 99 1009.0
20260507022408 6 37 1.6 6.4 0.00 0.51 0.03 99 1008.9
20260507022306 6 34 0.0 6.4 0.00 0.51 0.03 99 1008.9
20260507022205 6 26 3.2 6.4 0.00 0.51 0.03 99 1008.9
20260507021905 6 25 0.0 9.7 0.00 0.51 0.03 99 1009.0
20260507021804 6 30 1.6 9.7 0.00 0.51 0.03 99 1008.9
20260507021705 6 30 0.0 9.7 0.00 0.51 0.03 99 1009.0
20260507021604 6 25 3.2 9.7 0.00 0.51 0.03 99 1008.9
20260507021505 6 19 3.2 9.7 0.00 0.51 0.03 99 1009.0
20260507021405 6 20 0.0 9.7 0.00 0.51 0.03 99 1008.9
20260507021304 6 18 3.2 9.7 0.00 0.51 0.03 99 1009.1
20260507021205 6 22 1.6 9.7 0.00 0.51 0.03 99 1008.9
20260507021104 6 28 4.8 9.7 0.00 0.51 0.03 99 1009.0
20260507021005 6 30 0.0 6.4 0.00 0.51 0.03 99 1009.0
20260507020904 6 26 1.6 6.4 0.00 0.51 0.03 99 1009.0
20260507020805 6 22 3.2 6.4 0.00 0.51 0.03 99 1009.0
20260507020705 6 18 3.2 6.4 0.00 0.51 0.03 99 1008.9
20260507020505 6 25 3.2 6.4 0.00 0.51 0.03 99 1009.0
20260507020405 6 19 3.2 6.4 0.00 0.51 0.03 99 1009.0
20260507020205 6 14 1.6 6.4 0.00 0.51 0.03 99 1009.0
20260507020105 6 9 0.0 6.4 0.00 0.51 0.03 99 1008.9
20260507020005 6 7 0.0 6.4 0.00 0.51 0.03 99 1009.0
20260507015904 6 7 1.6 6.4 0.00 0.51 0.03 99 1009.0
20260507015805 6 10 1.6 6.4 0.00 0.51 0.03 99 1009.0
20260507015505 6 12 3.2 6.4 0.00 0.51 0.03 99 1009.1
20260507015405 6 16 1.6 8.0 0.00 0.51 0.03 99 1009.1
20260507015306 6 18 3.2 8.0 0.00 0.51 0.03 99 1009.1
20260507015205 6 24 0.0 8.0 0.00 0.51 0.03 99 1009.1
20260507015104 6 23 1.6 8.0 0.00 0.51 0.03 99 1009.1
20260507015005 6 24 3.2 9.7 0.00 0.51 0.03 99 1008.9
20260507014904 6 27 3.2 9.7 0.00 0.51 0.03 99 1009.1
20260507014705 6 29 3.2 9.7 0.00 0.51 0.03 99 1009.0
20260507014608 6 28 4.8 9.7 0.00 0.51 0.03 99 1009.2
20260507014504 6 22 3.2 9.7 0.00 0.51 0.03 99 1008.9
20260507014405 6 22 3.2 9.7 0.00 0.51 0.03 99 1009.0
20260507014304 6 25 0.0 9.7 0.00 0.51 0.03 99 1009.1
20260507014105 6 22 4.8 9.7 0.00 0.51 0.03 99 1009.1
20260507014004 6 25 1.6 8.0 0.00 0.51 0.03 99 1009.1
20260507013904 6 26 0.0 8.0 0.00 0.51 0.03 99 1009.0
20260507013804 6 24 3.2 8.0 0.00 0.51 0.03 99 1008.9
20260507013705 6 18 3.2 8.0 0.00 0.51 0.03 99 1009.0
20260507013607 6 20 0.0 8.0 0.00 0.51 0.03 99 1008.9
20260507013505 6 15 1.6 8.0 0.00 0.51 0.03 99 1009.0
20260507013405 6 12 0.0 8.0 0.00 0.51 0.03 99 1009.0
20260507013305 6 12 0.0 8.0 0.00 0.51 0.03 99 1009.0
20260507013205 6 12 0.0 8.0 0.00 0.51 0.03 99 1009.0
20260507013104 6 10 0.0 8.0 0.00 0.51 0.03 99 1008.9
20260507012904 6 8 3.2 8.0 0.00 0.51 0.03 99 1008.9
20260507012805 6 11 1.6 6.4 0.00 0.51 0.03 99 1009.0
20260507012704 6 17 1.6 6.4 0.03 0.51 0.03 99 1008.9
20260507012505 6 17 0.0 6.4 0.03 0.51 0.03 99 1008.7
20260507012404 6 13 0.0 9.7 0.03 0.51 0.03 99 1008.8
20260507012205 6 11 4.8 9.7 0.03 0.51 0.03 99 1008.7
20260507012104 6 13 3.2 9.7 0.03 0.51 0.03 99 1008.7
20260507012005 6 13 1.6 9.7 0.03 0.51 0.03 99 1008.7
20260507011904 6 16 3.2 9.7 0.03 0.51 0.03 99 1008.7
20260507011805 6 15 1.6 9.7 0.03 0.51 0.03 99 1008.8
20260507011705 6 9 0.0 9.7 0.03 0.51 0.03 99 1008.7
20260507011608 6 12 3.2 9.7 0.03 0.51 0.03 99 1008.7
20260507011505 6 12 1.6 9.7 0.03 0.51 0.03 99 1008.8
20260507011405 6 16 3.2 6.4 0.03 0.51 0.03 99 1008.8
20260507011204 6 41 0.0 6.4 0.03 0.51 0.03 99 1008.7
20260507011004 6 53 0.0 6.4 0.03 0.51 0.03 99 1008.9
20260507010805 6 37 0.0 9.7 0.03 0.51 0.03 99 1009.0
20260507010704 6 34 0.0 9.7 0.03 0.51 0.03 99 1008.9
20260507010608 6 37 0.0 9.7 0.03 0.51 0.03 99 1009.0
20260507010505 6 43 1.6 9.7 0.03 0.51 0.03 99 1009.0
20260507010405 6 41 0.0 9.7 0.03 0.51 0.03 99 1009.0
20260507010305 6 35 0.0 9.7 0.03 0.51 0.03 99 1009.0
20260507010205 6 26 3.2 9.7 0.03 0.51 0.03 99 1009.0
20260507010105 6 16 1.6 9.7 0.03 0.51 0.03 99 1009.0
20260507010005 6 18 1.6 9.7 0.03 0.51 0.03 99 1008.9
20260507005904 6 16 3.2 9.7 0.03 0.51 0.03 99 1008.9
20260507005604 6 7 1.6 9.7 0.03 0.51 0.03 99 1009.0
20260507005505 6 2 3.2 9.7 0.03 0.51 0.03 99 1009.0
20260507005404 6 356 4.8 6.4 0.03 0.51 0.03 99 1008.8
20260507005205 6 359 3.2 6.4 0.03 0.51 0.03 99 1008.7
20260507005104 6 3 1.6 4.8 0.03 0.51 0.03 99 1008.9
20260507005005 6 1 3.2 4.8 0.03 0.51 0.03 99 1008.8
20260507004805 6 1 1.6 4.8 0.03 0.51 0.03 99 1008.8
20260507004705 6 1 1.6 4.8 0.03 0.51 0.03 99 1008.8
20260507004605 6 358 0.0 3.2 0.03 0.51 0.03 99 1008.9
20260507004504 6 347 0.0 3.2 0.03 0.51 0.03 99 1008.9
20260507004405 6 342 0.0 3.2 0.03 0.51 0.03 99 1008.8
20260507004304 6 338 0.0 3.2 0.03 0.51 0.03 99 1008.7
20260507004205 6 334 0.0 3.2 0.03 0.51 0.03 99 1008.8
20260507004104 6 338 0.0 3.2 0.03 0.51 0.03 99 1008.9
20260507004005 6 337 0.0 4.8 0.03 0.51 0.03 99 1008.7
20260507003905 6 340 0.0 4.8 0.03 0.51 0.03 99 1008.7
20260507003805 6 340 0.0 4.8 0.03 0.51 0.03 99 1008.8
20260507003708 6 340 0.0 4.8 0.03 0.51 0.03 99 1008.9
20260507003605 6 339 0.0 4.8 0.03 0.51 0.03 99 1008.7
20260507003505 6 342 1.6 4.8 0.03 0.51 0.03 99 1008.8
20260507003405 6 345 0.0 4.8 0.03 0.51 0.03 99 1008.8
20260507003305 6 347 1.6 4.8 0.03 0.51 0.03 99 1008.9
20260507003104 6 348 1.6 4.8 0.03 0.51 0.03 99 1008.8
20260507003005 6 1 3.2 3.2 0.03 0.51 0.03 99 1008.6
20260507002905 6 1 1.6 3.2 0.03 0.51 0.03 99 1008.7
20260507002804 6 1 0.0 1.6 0.00 0.48 0.00 99 1008.8
20260507002708 6 1 0.0 1.6 0.00 0.48 0.00 99 1008.6
20260507002605 6 1 0.0 3.2 0.00 0.48 0.00 99 1008.7
20260507002505 6 1 0.0 3.2 0.00 0.48 0.00 99 1008.7
20260507002306 6 1 0.0 3.2 0.00 0.48 0.00 99 1008.6
20260507002204 6 1 0.0 3.2 0.00 0.48 0.00 99 1008.6
20260507002105 6 1 0.0 3.2 0.00 0.48 0.00 99 1008.5
20260507002004 6 1 0.0 3.2 0.00 0.48 0.00 99 1008.7
20260507001905 6 1 0.0 3.2 0.00 0.48 0.00 99 1008.7
20260507001804 6 1 0.0 3.2 0.00 0.48 0.00 99 1008.6
20260507001708 6 1 0.0 3.2 0.00 0.48 0.00 99 1008.7
20260507001505 6 1 0.0 3.2 0.00 0.48 0.00 99 1008.9
20260507001405 6 1 0.0 3.2 0.00 0.48 0.00 99 1008.9
20260507001305 6 1 0.0 3.2 0.00 0.48 0.00 99 1008.7
20260507001204 6 1 1.6 3.2 0.00 0.48 0.00 99 1008.8
20260507000904 6 1 0.0 3.2 0.00 0.48 0.00 99 1008.7
20260507000607 6 1 0.0 3.2 0.00 0.48 0.00 99 1008.6
20260507000505 6 1 0.0 3.2 0.00 0.48 0.00 99 1008.7
20260507000306 6 1 0.0 3.2 0.00 0.48 0.00 99 1008.6
20260507000205 6 1 0.0 3.2 0.00 0.48 0.00 99 1008.8
20260507000105 6 1 0.0 3.2 0.00 0.48 0.00 99 1008.8
20260507000005 6 1 0.0 3.2 0.00 0.48 0.00 99 1008.7
20260506235904 6 1 0.0 3.2 0.00 0.48 0.00 99 1008.9
20260506235804 6 1 0.0 3.2 0.00 0.48 0.00 99 1008.8
20260506235705 6 1 0.0 3.2 0.00 0.48 0.00 99 1008.9
20260506235504 6 1 0.0 3.2 0.00 0.48 0.00 99 1008.9
20260506235405 6 1 0.0 3.2 0.00 0.48 0.00 99 1008.8
20260506235306 6 1 0.0 3.2 0.00 0.48 0.00 99 1008.8
20260506235205 6 1 0.0 3.2 0.00 0.48 0.00 99 1008.7
20260506235104 6 1 0.0 3.2 0.00 0.48 0.00 99 1008.8
20260506235005 6 1 0.0 3.2 0.00 0.48 0.00 99 1008.9
20260506234905 6 1 1.6 3.2 0.00 0.48 0.00 99 1008.8
20260506234804 6 1 0.0 1.6 0.00 0.48 0.00 99 1008.9
20260506234705 6 45 0.0 3.2 0.00 0.48 0.00 99 1008.8
20260506234608 6 45 0.0 3.2 0.00 0.48 0.00 99 1008.8
20260506234504 6 45 0.0 3.2 0.00 0.48 0.00 99 1008.8
20260506234405 6 45 0.0 3.2 0.00 0.48 0.00 99 1008.8
20260506234204 6 45 0.0 3.2 0.00 0.48 0.00 99 1008.8
20260506234105 6 45 0.0 3.2 0.00 0.48 0.00 99 1008.8
20260506234004 6 45 0.0 3.2 0.00 0.48 0.00 99 1008.9
20260506233905 6 45 0.0 3.2 0.00 0.48 0.00 99 1009.0
20260506233805 6 45 0.0 3.2 0.00 0.48 0.00 99 1008.8
20260506233707 6 45 0.0 1.6 0.00 0.48 0.00 99 1008.8
20260506233505 6 0 0.0 0.0 0.00 0.48 0.00 99 1008.8
20260506233404 6 0 0.0 0.0 0.00 0.48 0.00 99 1008.8
20260506233305 6 0 0.0 0.0 0.00 0.48 0.00 99 1008.8
20260506233205 6 0 0.0 0.0 0.00 0.48 0.00 99 1008.9
20260506233105 6 45 0.0 1.6 0.00 0.48 0.00 99 1008.9
20260506233005 6 46 0.0 3.2 0.00 0.48 0.00 99 1008.8
20260506232805 6 45 0.0 3.2 0.00 0.48 0.00 99 1008.8
20260506232604 6 45 0.0 3.2 0.00 0.48 0.00 99 1008.7
20260506232505 6 45 0.0 3.2 0.00 0.48 0.00 99 1008.8
20260506232404 6 45 0.0 3.2 0.00 0.48 0.00 99 1008.8
20260506232204 7 46 0.0 3.2 0.00 0.48 0.00 99 1008.8
20260506232105 7 45 1.6 6.4 0.00 0.48 0.00 99 1008.8
20260506232004 7 38 0.0 6.4 0.00 0.48 0.00 99 1008.8
20260506231905 7 38 0.0 6.4 0.00 0.48 0.00 99 1008.8
20260506231804 7 33 0.0 6.4 0.00 0.48 0.00 99 1008.8
20260506231707 7 26 0.0 6.4 0.00 0.48 0.00 99 1008.8
20260506231505 7 21 0.0 6.4 0.00 0.48 0.00 99 1008.8
20260506231405 7 24 0.0 6.4 0.00 0.48 0.00 99 1008.9
20260506231305 7 23 0.0 6.4 0.00 0.48 0.00 99 1008.8
20260506231204 7 23 0.0 6.4 0.00 0.48 0.00 99 1008.7
20260506231005 7 22 0.0 3.2 0.00 0.48 0.00 99 1008.8
20260506230904 7 26 0.0 3.2 0.00 0.48 0.00 99 1008.7
20260506230805 7 26 1.6 3.2 0.00 0.48 0.00 99 1008.9
20260506230707 7 23 1.6 4.8 0.00 0.48 0.00 99 1008.7
20260506230605 7 22 0.0 6.4 0.00 0.48 0.00 99 1008.8
20260506230505 7 20 0.0 6.4 0.00 0.48 0.00 99 1008.7
20260506230404 7 15 0.0 6.4 0.00 0.48 0.00 99 1008.7
20260506230305 7 13 1.6 6.4 0.00 0.48 0.00 99 1008.7
20260506230204 7 11 0.0 6.4 0.00 0.48 0.00 99 1008.8
20260506230105 7 10 1.6 6.4 0.00 0.48 0.00 99 1008.8
20260506225905 7 2 1.6 6.4 0.00 0.48 0.00 99 1008.7
20260506225808 7 1 1.6 6.4 0.00 0.48 0.00 99 1008.7
20260506225705 7 1 1.6 6.4 0.00 0.48 0.00 99 1008.7
20260506225605 7 1 0.0 3.2 0.00 0.48 0.00 99 1008.8
20260506225505 7 1 1.6 3.2 0.00 0.48 0.00 99 1008.9
20260506225405 7 1 0.0 3.2 0.00 0.48 0.00 99 1008.8
20260506225306 7 1 0.0 3.2 0.00 0.48 0.00 99 1008.8
20260506225205 7 1 0.0 3.2 0.00 0.48 0.00 99 1008.7
20260506225105 7 1 0.0 3.2 0.00 0.48 0.00 99 1008.7
20260506225005 7 1 0.0 3.2 0.00 0.48 0.00 99 1008.8
20260506224904 7 1 0.0 3.2 0.00 0.48 0.00 99 1008.8
20260506224808 7 1 0.0 3.2 0.00 0.48 0.00 99 1008.8
20260506224705 7 1 0.0 3.2 0.00 0.48 0.00 99 1008.9
20260506224604 7 1 0.0 3.2 0.00 0.48 0.00 99 1008.8
20260506224405 7 1 0.0 3.2 0.00 0.48 0.00 99 1008.7
20260506224304 7 1 0.0 3.2 0.00 0.48 0.00 99 1008.8
20260506224205 7 1 0.0 3.2 0.00 0.48 0.00 99 1008.8
20260506224105 7 1 0.0 3.2 0.00 0.48 0.00 99 1008.9
20260506224004 7 1 0.0 3.2 0.00 0.48 0.00 99 1008.8
20260506223908 7 1 0.0 3.2 0.00 0.48 0.00 99 1008.8
20260506223804 7 1 0.0 3.2 0.00 0.48 0.00 99 1008.9
20260506223704 7 1 0.0 1.6 0.00 0.48 0.00 99 1008.8
20260506223505 7 1 0.0 1.6 0.00 0.48 0.00 99 1008.7
20260506223404 7 1 0.0 1.6 0.00 0.48 0.00 99 1008.7
20260506223205 7 1 0.0 1.6 0.00 0.48 0.00 99 1008.8
20260506223104 7 1 0.0 1.6 0.00 0.48 0.00 99 1008.8
20260506222905 7 1 0.0 1.6 0.00 0.48 0.00 99 1008.7
20260506222804 7 1 0.0 1.6 0.00 0.48 0.00 99 1008.8
20260506222705 7 0 0.0 0.0 0.00 0.48 0.00 99 1008.7
20260506222504 7 0 0.0 0.0 0.00 0.48 0.00 99 1008.7
20260506222306 7 1 0.0 3.2 0.00 0.48 0.00 99 1008.7
20260506222204 7 1 0.0 3.2 0.00 0.48 0.00 99 1008.7
20260506222105 7 1 0.0 4.8 0.00 0.48 0.00 99 1008.5
20260506222008 7 1 0.0 4.8 0.00 0.48 0.00 99 1008.6
20260506221905 7 11 0.0 4.8 0.00 0.48 0.00 99 1008.7
20260506221805 7 17 0.0 4.8 0.00 0.48 0.00 99 1008.7
20260506221705 7 22 0.0 4.8 0.00 0.48 0.00 99 1008.6
20260506221605 7 27 0.0 4.8 0.00 0.48 0.00 99 1008.6
20260506221505 7 29 0.0 4.8 0.00 0.48 0.00 99 1008.6
20260506221404 7 33 0.0 4.8 0.00 0.48 0.00 99 1008.5
20260506221305 7 34 0.0 4.8 0.00 0.48 0.00 99 1008.6
20260506221205 7 36 0.0 4.8 0.00 0.48 0.00 99 1008.6
20260506221105 7 41 1.6 4.8 0.00 0.48 0.00 99 1008.5
20260506221007 7 46 0.0 4.8 0.00 0.48 0.00 99 1008.5
20260506220904 7 45 0.0 4.8 0.00 0.48 0.00 99 1008.4
20260506220805 7 46 0.0 4.8 0.00 0.48 0.00 99 1008.6
20260506220604 7 56 0.0 6.4 0.00 0.48 0.00 99 1008.6
20260506220505 7 48 3.2 6.4 0.00 0.48 0.00 99 1008.4
20260506220404 7 38 0.0 6.4 0.00 0.48 0.00 99 1008.5
20260506220305 7 30 0.0 6.4 0.00 0.48 0.00 99 1008.5
20260506220204 7 24 0.0 6.4 0.00 0.48 0.00 99 1008.4
20260506220009 7 15 0.0 6.4 0.00 0.48 0.00 99 1008.4
20260506215805 7 12 0.0 6.4 0.00 0.48 0.48 99 1008.4
20260506215705 8 7 3.2 6.4 0.00 0.48 0.48 99 1008.5
20260506215604 8 4 0.0 6.4 0.00 0.48 0.48 99 1008.4
20260506215505 8 8 3.2 6.4 0.00 0.48 0.48 99 1008.4
20260506215404 8 13 1.6 6.4 0.00 0.48 0.48 99 1008.4
20260506215306 8 17 1.6 6.4 0.00 0.48 0.48 99 1008.3
20260506215205 8 30 1.6 4.8 0.00 0.48 0.48 99 1008.3
20260506215104 8 38 1.6 4.8 0.00 0.48 0.48 99 1008.3
20260506215008 8 56 0.0 4.8 0.00 0.48 0.48 99 1008.3
20260506214904 8 59 0.0 6.4 0.00 0.48 0.48 99 1008.3
20260506214805 8 54 0.0 6.4 0.00 0.48 0.48 99 1008.4
20260506214604 8 46 0.0 6.4 0.00 0.48 0.48 99 1008.3
20260506214504 8 46 0.0 6.4 0.00 0.48 0.48 99 1008.2
20260506214405 8 35 0.0 6.4 0.00 0.48 0.48 99 1008.2
20260506214305 8 29 0.0 6.4 0.00 0.48 0.48 99 1008.3
20260506214207 8 21 0.0 6.4 0.00 0.48 0.48 99 1008.3
20260506214004 8 14 1.6 6.4 0.00 0.48 0.48 99 1008.3
20260506213905 8 10 3.2 6.4 0.00 0.48 0.48 99 1008.3
20260506213605 8 7 0.0 6.4 0.00 0.48 0.48 99 1008.2
20260506213504 8 9 0.0 6.4 0.00 0.48 0.48 99 1008.2
20260506213404 8 12 0.0 6.4 0.00 0.48 0.48 99 1008.2
20260506213104 8 14 0.0 6.4 0.00 0.48 0.48 99 1008.2
20260506213005 8 18 3.2 6.4 0.00 0.48 0.48 99 1008.0
20260506212905 8 22 1.6 6.4 0.00 0.48 0.48 99 1008.2
20260506212805 8 21 3.2 6.4 0.00 0.48 0.48 99 1008.1
20260506212604 8 26 1.6 8.0 0.00 0.48 0.48 99 1008.0
20260506212505 8 27 1.6 8.0 0.00 0.48 0.48 99 1008.1
20260506212405 8 24 1.6 8.0 0.00 0.48 0.48 99 1008.2
20260506212306 8 20 1.6 8.0 0.00 0.48 0.48 99 1007.9
20260506212104 8 17 3.2 9.7 0.00 0.48 0.48 99 1008.1
20260506212005 8 16 0.0 9.7 0.00 0.48 0.48 99 1008.1
20260506211805 8 20 1.6 9.7 0.00 0.48 0.48 99 1008.0
20260506211705 8 24 3.2 9.7 0.00 0.48 0.48 99 1008.1
20260506211405 8 24 3.2 9.7 0.00 0.48 0.48 99 1008.1
20260506211304 8 30 3.2 9.7 0.00 0.48 0.48 99 1008.2
20260506211208 8 37 3.2 9.7 0.00 0.48 0.48 99 1008.2
20260506211105 8 45 1.6 4.8 0.00 0.48 0.48 99 1008.1
20260506211005 8 45 0.0 4.8 0.00 0.48 0.48 99 1008.1
20260506210904 8 44 0.0 4.8 0.00 0.48 0.48 99 1008.1
20260506210804 8 38 0.0 6.4 0.00 0.48 0.48 99 1008.0
20260506210705 8 34 0.0 6.4 0.00 0.48 0.48 99 1008.0
20260506210504 8 27 0.0 6.4 0.00 0.48 0.48 99 1008.0
20260506210405 8 24 0.0 6.4 0.00 0.48 0.48 99 1008.2
20260506210307 8 21 0.0 6.4 0.00 0.48 0.48 99 1008.2
20260506210205 8 16 0.0 6.4 0.00 0.48 0.48 99 1008.1
20260506210105 8 11 0.0 6.4 0.00 0.48 0.48 99 1008.0
20260506210004 8 6 1.6 6.4 0.00 0.48 0.48 99 1008.1
20260506205905 8 5 0.0 6.4 0.00 0.48 0.48 99 1008.2
20260506205704 8 17 0.0 4.8 0.00 0.48 0.48 99 1008.2
20260506205605 8 27 0.0 6.4 0.00 0.48 0.48 99 1008.2
20260506205407 8 30 0.0 6.4 0.00 0.48 0.48 99 1008.2
20260506205306 8 32 0.0 6.4 0.00 0.48 0.48 99 1008.2
20260506205204 8 32 0.0 6.4 0.00 0.48 0.48 99 1008.0
20260506205104 8 30 0.0 6.4 0.00 0.48 0.48 99 1008.0
20260506205005 8 32 0.0 6.4 0.00 0.48 0.48 99 1008.1
20260506204905 8 31 1.6 6.4 0.00 0.48 0.48 99 1008.0
20260506204805 8 27 0.0 6.4 0.00 0.48 0.48 99 1008.0
20260506204705 8 29 0.0 6.4 0.00 0.48 0.48 99 1008.1
20260506204605 8 27 3.2 6.4 0.00 0.48 0.48 99 1008.0
20260506204505 8 26 1.6 6.4 0.00 0.48 0.48 99 1008.0
20260506204405 8 15 0.0 8.0 0.00 0.48 0.48 99 1008.2
20260506204308 8 19 0.0 8.0 0.00 0.48 0.48 99 1008.1
20260506204205 8 20 0.0 9.7 0.00 0.48 0.48 99 1007.9
20260506204105 8 23 0.0 9.7 0.00 0.48 0.48 99 1008.0
20260506203905 8 21 0.0 9.7 0.00 0.48 0.48 99 1008.0
20260506203705 8 23 3.2 9.7 0.00 0.48 0.48 99 1008.1
20260506203605 8 19 1.6 9.7 0.00 0.48 0.48 99 1007.9
20260506203504 8 18 1.6 9.7 0.00 0.48 0.48 99 1008.1
20260506203405 8 20 1.6 9.7 0.00 0.48 0.48 99 1008.0
20260506203205 8 12 4.8 9.7 0.00 0.48 0.48 99 1008.0
20260506203104 8 8 1.6 6.4 0.00 0.48 0.48 99 1008.0
20260506203005 8 8 1.6 6.4 0.00 0.48 0.48 99 1008.2
20260506202706 8 1 3.2 6.4 0.00 0.48 0.48 99 1008.2
20260506202605 8 1 3.2 6.4 0.00 0.48 0.48 99 1008.0
20260506202505 8 1 1.6 6.4 0.00 0.48 0.48 99 1008.2
20260506202307 8 1 3.2 6.4 0.00 0.48 0.48 99 1008.1
20260506202205 8 1 3.2 6.4 0.00 0.48 0.48 99 1008.1
20260506202005 8 10 1.6 6.4 0.00 0.48 0.48 99 1008.1
20260506201905 8 14 1.6 6.4 0.00 0.48 0.48 99 1008.0
20260506201805 8 14 1.6 6.4 0.00 0.48 0.48 99 1008.0
20260506201705 8 10 0.0 6.4 0.00 0.48 0.48 99 1008.0
20260506201604 8 10 3.2 6.4 0.00 0.48 0.48 99 1008.0
20260506201405 8 11 0.0 6.4 0.00 0.48 0.48 99 1008.1
20260506201304 8 6 3.2 6.4 0.00 0.48 0.48 99 1008.1
20260506201205 8 6 3.2 6.4 0.00 0.48 0.48 99 1008.0
20260506201104 8 6 3.2 6.4 0.00 0.48 0.48 99 1008.0
20260506201005 8 353 0.0 6.4 0.00 0.48 0.48 99 1008.1
20260506200804 8 342 1.6 6.4 0.00 0.48 0.48 99 1008.0
20260506200705 8 340 1.6 4.8 0.00 0.48 0.48 99 1008.2
20260506200605 8 337 0.0 4.8 0.00 0.48 0.48 99 1008.1
20260506200506 8 334 1.6 4.8 0.00 0.48 0.48 99 1008.0
20260506200304 8 339 0.0 4.8 0.00 0.48 0.48 99 1008.0
20260506200205 8 340 3.2 4.8 0.00 0.48 0.48 99 1008.0
20260506200104 8 337 1.6 3.2 0.00 0.48 0.48 99 1008.0
20260506200005 8 337 0.0 3.2 0.00 0.48 0.48 99 1008.0
20260506195905 8 338 0.0 3.2 0.00 0.48 0.48 99 1008.0
20260506195804 8 343 0.0 3.2 0.00 0.48 0.48 99 1007.9
20260506195705 8 347 1.6 3.2 0.00 0.48 0.48 99 1008.0
20260506195605 8 1 0.0 3.2 0.00 0.48 0.48 99 1007.8
20260506195507 8 15 0.0 3.2 0.00 0.48 0.48 99 1008.0
20260506195405 8 18 0.0 3.2 0.00 0.48 0.48 99 1007.8
20260506195306 8 22 0.0 4.8 0.00 0.48 0.48 99 1007.9
20260506195204 8 21 0.0 4.8 0.00 0.48 0.48 99 1007.9
20260506195105 8 19 0.0 4.8 0.00 0.48 0.48 99 1008.1
20260506195005 8 27 0.0 6.4 0.00 0.48 0.48 99 1007.9
20260506194904 8 31 0.0 6.4 0.00 0.48 0.48 99 1007.9
20260506194805 8 27 0.0 6.4 0.00 0.48 0.48 99 1007.9
20260506194604 8 27 0.0 6.4 0.00 0.48 0.48 99 1007.8
20260506194304 8 24 1.6 6.4 0.00 0.48 0.48 99 1007.8
20260506194105 8 34 1.6 9.7 0.00 0.48 0.48 99 1007.6
20260506194004 8 33 1.6 9.7 0.00 0.48 0.48 99 1007.8
20260506193906 8 33 1.6 9.7 0.00 0.48 0.48 99 1007.7
20260506193705 8 33 0.0 9.7 0.03 0.48 0.48 99 1007.6
20260506193608 8 30 1.6 9.7 0.03 0.48 0.48 99 1007.6
20260506193405 8 33 3.2 9.7 0.03 0.48 0.48 99 1007.7
20260506193305 8 31 3.2 9.7 0.03 0.48 0.48 99 1007.6
20260506193205 8 22 4.8 9.7 0.03 0.48 0.48 99 1007.6
20260506193105 8 16 1.6 11.3 0.03 0.48 0.48 99 1007.6
20260506193005 8 15 3.2 11.3 0.03 0.48 0.48 99 1007.7
20260506192905 8 16 1.6 11.3 0.03 0.48 0.48 99 1007.7
20260506192805 8 18 1.6 11.3 0.03 0.48 0.48 99 1007.5
20260506192705 8 23 3.2 11.3 0.03 0.48 0.48 99 1007.5
20260506192607 8 25 1.6 11.3 0.03 0.48 0.48 99 1007.6
20260506192505 8 24 0.0 11.3 0.03 0.48 0.48 99 1007.5
20260506192405 8 30 3.2 11.3 0.03 0.48 0.48 99 1007.5
20260506192306 8 32 3.2 11.3 0.03 0.48 0.48 99 1007.6
20260506192205 8 34 1.6 11.3 0.03 0.48 0.48 99 1007.5
20260506192005 8 38 3.2 6.4 0.03 0.48 0.48 99 1007.6
20260506191905 8 31 3.2 8.0 0.03 0.48 0.48 99 1007.4
20260506191805 8 32 1.6 8.0 0.03 0.48 0.48 99 1007.5
20260506191705 8 25 1.6 8.0 0.03 0.48 0.48 99 1007.4
20260506191505 9 28 1.6 8.0 0.03 0.48 0.48 99 1007.4
20260506191405 9 21 3.2 8.0 0.03 0.48 0.48 99 1007.5
20260506191304 9 16 0.0 8.0 0.03 0.48 0.48 99 1007.4
20260506191205 9 13 1.6 8.0 0.05 0.48 0.48 99 1007.5
20260506191005 9 10 4.8 9.7 0.05 0.48 0.48 99 1007.4
20260506190904 9 11 3.2 9.7 0.05 0.48 0.48 99 1007.4
20260506190805 9 7 3.2 9.7 0.05 0.48 0.48 99 1007.4
20260506190605 9 15 1.6 9.7 0.05 0.48 0.48 99 1007.4
20260506190505 9 11 3.2 9.7 0.05 0.48 0.48 99 1007.4
20260506190405 9 14 3.2 9.7 0.05 0.48 0.48 99 1007.2
20260506190304 9 14 3.2 9.7 0.05 0.48 0.48 99 1007.4
20260506190205 9 17 4.8 9.7 0.05 0.48 0.48 99 1007.5
20260506190104 9 19 3.2 9.7 0.05 0.48 0.48 99 1007.4
20260506190006 9 19 4.8 9.7 0.05 0.48 0.48 99 1007.5
20260506185904 9 20 1.6 6.4 0.05 0.48 0.48 99 1007.4
20260506185707 9 15 3.2 6.4 0.05 0.48 0.48 99 1007.3
20260506185605 9 15 3.2 8.0 0.05 0.48 0.48 99 1007.3
20260506185505 9 19 3.2 8.0 0.05 0.48 0.48 99 1007.4
20260506185405 9 17 3.2 8.0 0.05 0.48 0.48 99 1007.2
20260506185306 9 15 3.2 8.0 0.05 0.48 0.48 99 1007.3
20260506185105 10 17 1.6 8.0 0.05 0.48 0.48 99 1007.2
20260506185005 10 17 3.2 8.0 0.05 0.48 0.48 99 1007.1
20260506184905 10 17 1.6 8.0 0.05 0.48 0.48 99 1006.9
20260506184505 10 13 1.6 8.0 0.10 0.48 0.48 99 1007.1
20260506184405 10 11 3.2 8.0 0.10 0.48 0.48 99 1007.1
20260506184305 10 12 3.2 8.0 0.10 0.48 0.48 99 1007.1
20260506184105 10 8 3.2 8.0 0.10 0.48 0.48 99 1007.1
20260506184005 10 9 0.0 6.4 0.10 0.48 0.48 99 1007.1
20260506183905 10 19 1.6 6.4 0.10 0.48 0.48 99 1007.0
20260506183805 10 14 0.0 3.2 0.05 0.46 0.46 99 1007.0
20260506183705 10 15 0.0 3.2 0.05 0.46 0.46 99 1007.0
20260506183604 10 18 0.0 3.2 0.05 0.46 0.46 99 1007.1
20260506183505 10 18 0.0 3.2 0.05 0.46 0.46 99 1007.2
20260506183404 10 20 0.0 3.2 0.05 0.46 0.46 99 1007.2
20260506183305 10 34 0.0 6.4 0.05 0.46 0.46 99 1007.0
20260506183205 10 40 0.0 6.4 0.05 0.46 0.46 99 1007.0
20260506183105 10 55 0.0 6.4 0.05 0.46 0.46 99 1007.0
20260506183006 10 67 0.0 6.4 0.05 0.46 0.46 99 1007.1
20260506182905 10 62 0.0 6.4 0.05 0.46 0.46 99 1006.9
20260506182808 10 56 0.0 6.4 0.05 0.46 0.46 99 1007.1
20260506182705 10 54 0.0 6.4 0.05 0.46 0.46 99 1006.9
20260506182604 10 51 0.0 6.4 0.05 0.46 0.46 99 1006.9
20260506182505 10 48 1.6 6.4 0.05 0.46 0.46 99 1007.1
20260506182405 10 48 1.6 6.4 0.05 0.46 0.46 99 1006.9
20260506182306 10 37 1.6 6.4 0.05 0.46 0.46 99 1006.9
20260506182205 10 36 1.6 4.8 0.05 0.46 0.46 99 1006.9
20260506182104 10 28 0.0 6.4 0.05 0.46 0.46 99 1006.7
20260506182005 10 27 0.0 8.0 0.05 0.46 0.46 99 1006.9
20260506181905 10 30 1.6 8.0 0.05 0.46 0.46 99 1006.9
20260506181605 10 23 1.6 8.0 0.05 0.46 0.46 99 1006.7
20260506181405 10 34 3.2 9.7 0.05 0.46 0.46 99 1006.7
20260506181305 10 41 3.2 9.7 0.05 0.46 0.46 99 1006.9
20260506181205 10 45 1.6 9.7 0.03 0.43 0.43 99 1006.7
20260506181105 10 60 3.2 9.7 0.03 0.43 0.43 99 1006.7
20260506180704 10 61 1.6 9.7 0.03 0.43 0.43 99 1006.6
20260506180605 10 59 3.2 9.7 0.03 0.43 0.43 99 1006.5
20260506180505 10 60 1.6 9.7 0.03 0.43 0.43 99 1006.6
20260506180405 10 50 3.2 9.7 0.03 0.43 0.43 99 1006.6
20260506180304 10 51 0.0 9.7 0.03 0.43 0.43 99 1006.5
20260506180205 10 46 3.2 9.7 0.03 0.43 0.43 99 1006.6
20260506180104 10 37 0.0 11.3 0.03 0.43 0.43 99 1006.6
20260506175908 10 51 1.6 11.3 0.03 0.43 0.43 99 1006.6
20260506175704 10 64 1.6 11.3 0.03 0.43 0.43 99 1006.5
20260506175605 10 71 0.0 11.3 0.03 0.43 0.43 99 1006.5
20260506175505 10 65 1.6 11.3 0.03 0.43 0.43 99 1006.6
20260506175404 10 70 0.0 11.3 0.05 0.43 0.43 99 1006.5
20260506175306 10 67 0.0 11.3 0.05 0.43 0.43 99 1006.6
20260506175205 10 71 1.6 11.3 0.05 0.43 0.43 99 1006.6
20260506175105 10 64 3.2 11.3 0.05 0.43 0.43 99 1006.6
20260506175005 10 50 0.0 8.0 0.05 0.43 0.43 99 1006.6
20260506174907 10 47 1.6 8.0 0.03 0.38 0.38 99 1006.5
20260506174704 10 54 1.6 8.0 0.03 0.38 0.38 99 1006.4
20260506174605 10 49 3.2 8.0 0.03 0.38 0.38 99 1006.4
20260506174505 10 57 3.2 8.0 0.03 0.38 0.38 99 1006.4
20260506174404 10 37 3.2 8.0 0.03 0.38 0.38 99 1006.4
20260506174305 10 37 0.0 8.0 0.03 0.38 0.38 99 1006.4
20260506174104 10 37 3.2 8.0 0.03 0.38 0.38 99 1006.2
20260506173907 10 49 0.0 6.4 0.03 0.38 0.38 99 1006.3
20260506173804 10 43 1.6 6.4 0.03 0.38 0.38 99 1006.4
20260506173705 10 38 0.0 6.4 0.03 0.38 0.38 99 1006.2
20260506173604 10 40 0.0 6.4 0.03 0.38 0.38 99 1006.3
20260506173505 10 39 1.6 6.4 0.03 0.38 0.38 99 1006.4
20260506173405 10 45 3.2 6.4 0.03 0.38 0.38 99 1006.2
20260506173304 10 33 3.2 6.4 0.03 0.38 0.38 99 1006.3
20260506173205 10 33 1.6 6.4 0.03 0.38 0.38 99 1006.2
20260506173105 10 25 1.6 6.4 0.03 0.38 0.38 99 1006.2
20260506173005 10 24 3.2 6.4 0.03 0.38 0.38 99 1006.1
20260506172904 10 14 0.0 6.4 0.03 0.38 0.38 99 1006.1
20260506172804 10 18 0.0 6.4 0.03 0.38 0.38 99 1006.2
20260506172705 10 19 0.0 6.4 0.03 0.38 0.38 99 1006.1
20260506172605 10 21 0.0 6.4 0.05 0.38 0.38 99 1006.2
20260506172405 10 21 0.0 6.4 0.10 0.38 0.38 99 1006.0
20260506172307 10 24 0.0 6.4 0.10 0.38 0.38 99 1006.0
20260506172207 10 33 1.6 6.4 0.13 0.38 0.38 99 1006.1
20260506172105 10 33 1.6 6.4 0.13 0.38 0.38 99 1006.1
20260506172004 10 26 1.6 6.4 0.15 0.38 0.38 99 1006.3
20260506171905 10 25 1.6 4.8 0.15 0.38 0.38 99 1006.2
20260506171805 10 20 0.0 4.8 0.18 0.38 0.38 99 1006.3
20260506171705 10 16 1.6 4.8 0.18 0.38 0.38 99 1006.2
20260506171605 10 15 3.2 4.8 0.18 0.38 0.38 99 1006.2
20260506171504 10 23 0.0 4.8 0.18 0.38 0.38 99 1006.1
20260506171405 10 28 0.0 4.8 0.18 0.38 0.38 99 1006.2
20260506171308 10 30 3.2 4.8 0.23 0.38 0.38 99 1006.1
20260506171205 10 24 0.0 4.8 0.23 0.38 0.38 99 1006.1
20260506171105 10 42 0.0 6.4 0.28 0.38 0.38 99 1006.0
20260506171004 10 56 1.6 6.4 0.28 0.38 0.38 99 1006.1
20260506170905 10 59 1.6 8.0 0.28 0.38 0.38 99 1006.2
20260506170805 10 55 1.6 8.0 0.28 0.38 0.38 99 1006.1
20260506170704 10 64 0.0 8.0 0.30 0.38 0.38 99 1006.1
20260506170505 10 59 0.0 8.0 0.30 0.38 0.38 99 1006.1
20260506170407 10 49 0.0 8.0 0.33 0.38 0.38 99 1006.1
20260506170305 10 48 0.0 8.0 0.33 0.38 0.38 99 1006.2
20260506170204 10 55 3.2 8.0 0.33 0.38 0.38 99 1006.2
20260506170005 10 34 3.2 8.0 0.33 0.38 0.38 99 1006.1
20260506165905 10 28 3.2 8.0 0.33 0.38 0.38 99 1006.0
20260506165805 10 24 1.6 8.0 0.36 0.38 0.38 99 1006.1
20260506165704 10 14 3.2 8.0 0.36 0.38 0.38 99 1006.2
20260506165605 10 11 1.6 9.7 0.36 0.38 0.38 99 1006.0
20260506165504 10 5 1.6 9.7 0.36 0.38 0.38 99 1006.1
20260506165306 10 8 1.6 9.7 0.33 0.36 0.36 99 1006.0
20260506165205 10 1 1.6 9.7 0.33 0.36 0.36 99 1006.1
20260506165105 10 1 3.2 9.7 0.33 0.36 0.36 99 1006.1
20260506165005 10 4 3.2 9.7 0.36 0.36 0.36 99 1006.1
20260506164905 10 5 3.2 9.7 0.36 0.36 0.36 99 1006.1
20260506164705 10 21 3.2 9.7 0.36 0.36 0.36 99 1006.2
20260506164604 10 28 3.2 6.4 0.36 0.36 0.36 99 1006.0
20260506164508 10 30 0.0 4.8 0.36 0.36 0.36 99 1006.0
20260506164405 10 36 0.0 4.8 0.36 0.36 0.36 99 1005.9
20260506164305 10 29 1.6 4.8 0.36 0.36 0.36 99 1006.1
20260506164205 10 28 1.6 4.8 0.36 0.36 0.36 99 1005.9
20260506163905 10 18 0.0 4.8 0.36 0.36 0.36 99 1005.9
20260506163805 10 36 0.0 4.8 0.36 0.36 0.36 99 1005.9
20260506163705 10 44 0.0 4.8 0.36 0.36 0.36 99 1006.0
20260506163404 10 93 0.0 3.2 0.36 0.36 0.36 99 1005.9
20260506163305 10 96 0.0 3.2 0.36 0.36 0.36 99 1006.0
20260506163205 10 100 0.0 3.2 0.36 0.36 0.36 99 1006.0
20260506163105 10 96 0.0 3.2 0.36 0.36 0.36 99 1005.9
20260506162904 10 102 1.6 3.2 0.36 0.36 0.36 99 1005.9
20260506162805 10 103 0.0 3.2 0.36 0.36 0.36 99 1005.9
20260506162704 10 89 0.0 4.8 0.33 0.33 0.33 99 1005.9
20260506162505 10 94 0.0 4.8 0.30 0.30 0.30 99 1005.9
20260506162404 10 84 1.6 4.8 0.30 0.30 0.30 99 1005.9
20260506162307 10 66 0.0 4.8 0.30 0.30 0.30 99 1005.8
20260506162205 10 50 1.6 4.8 0.28 0.28 0.28 99 1005.7
20260506162106 10 36 1.6 4.8 0.28 0.28 0.28 99 1005.8
20260506161905 10 29 1.6 4.8 0.23 0.23 0.23 99 1005.8
20260506161805 10 26 3.2 9.7 0.20 0.20 0.20 99 1005.9
20260506161705 10 25 1.6 9.7 0.20 0.20 0.20 99 1005.9
20260506161608 10 17 0.0 9.7 0.20 0.20 0.20 99 1005.9
20260506161506 10 30 0.0 12.9 0.20 0.20 0.20 99 1005.9
20260506161406 11 27 3.2 12.9 0.18 0.18 0.18 99 1006.1
20260506161305 11 36 3.2 12.9 0.15 0.15 0.15 99 1005.9
20260506161205 11 58 1.6 12.9 0.15 0.15 0.15 99 1005.9
20260506161105 11 58 1.6 16.1 0.13 0.13 0.13 99 1005.9
20260506161005 11 54 1.6 16.1 0.13 0.13 0.13 98 1005.9
20260506160905 11 56 3.2 16.1 0.13 0.13 0.13 98 1006.0
20260506160805 11 48 3.2 16.1 0.13 0.13 0.13 98 1006.0
20260506160705 11 58 3.2 16.1 0.10 0.10 0.10 97 1006.0
20260506160405 11 48 3.2 16.1 0.05 0.05 0.05 97 1006.0
20260506160304 11 42 3.2 16.1 0.05 0.05 0.05 96 1005.9
20260506160205 11 30 3.2 16.1 0.05 0.05 0.05 96 1005.9
20260506160105 12 19 1.6 9.7 0.05 0.05 0.05 96 1005.9
20260506160005 12 22 1.6 9.7 0.05 0.05 0.05 96 1006.0
20260506155905 12 35 1.6 12.9 0.05 0.05 0.05 95 1005.9
20260506155707 12 39 3.2 12.9 0.03 0.03 0.03 95 1005.8
20260506155605 12 38 3.2 12.9 0.03 0.03 0.03 94 1005.9
20260506155405 12 54 3.2 12.9 0.03 0.03 0.03 94 1005.8
20260506155306 12 65 0.0 12.9 0.03 0.03 0.03 93 1005.7
20260506155105 12 77 3.2 12.9 0.03 0.03 0.03 92 1005.7
20260506155005 12 84 3.2 12.9 0.00 0.00 0.00 91 1005.7
20260506154905 12 84 3.2 12.9 0.00 0.00 0.00 91 1005.6
20260506154805 12 94 3.2 11.3 0.00 0.00 0.00 90 1005.6
20260506154705 13 108 3.2 16.1 0.00 0.00 0.00 90 1005.5
20260506154505 13 119 3.2 17.7 0.00 0.00 0.00 89 1005.3
20260506154405 13 124 3.2 17.7 0.00 0.00 0.00 88 1005.4
20260506154305 13 127 3.2 17.7 0.00 0.00 0.00 88 1005.2
20260506154205 13 135 4.8 17.7 0.00 0.00 0.00 87 1005.0
20260506154008 13 139 3.2 17.7 0.00 0.00 0.00 86 1005.0
20260506153905 13 144 4.8 17.7 0.00 0.00 0.00 85 1005.0
20260506153804 13 144 11.3 20.9 0.00 0.00 0.00 83 1004.7
20260506153705 13 143 12.9 20.9 0.00 0.00 0.00 81 1004.8
20260506153605 13 144 11.3 20.9 0.00 0.00 0.00 81 1004.7
20260506153505 13 144 6.4 20.9 0.00 0.00 0.00 81 1004.6
20260506153404 13 144 8.0 20.9 0.00 0.00 0.00 80 1004.7
20260506153305 13 144 8.0 20.9 0.00 0.00 0.00 80 1004.8
20260506153205 13 139 4.8 20.9 0.00 0.00 0.00 81 1004.8
20260506153108 13 135 4.8 20.9 0.00 0.00 0.00 80 1004.7
20260506152905 13 135 6.4 20.9 0.00 0.00 0.00 80 1004.7
20260506152805 13 139 11.3 20.9 0.00 0.00 0.00 80 1004.7
20260506152705 13 139 11.3 19.3 0.00 0.00 0.00 80 1004.6
20260506152504 14 141 9.7 19.3 0.00 0.00 0.00 80 1004.7
20260506152405 14 138 6.4 19.3 0.00 0.00 0.00 79 1004.6
20260506152205 14 138 6.4 19.3 0.00 0.00 0.00 80 1004.4
20260506152105 14 138 9.7 20.9 0.00 0.00 0.00 79 1004.5
20260506152005 14 141 6.4 20.9 0.00 0.00 0.00 79 1004.6
20260506151805 14 137 11.3 20.9 0.00 0.00 0.00 79 1004.4
20260506151704 14 137 6.4 20.9 0.00 0.00 0.00 79 1004.3
20260506151605 15 137 6.4 20.9 0.00 0.00 0.00 79 1004.4
20260506151505 15 139 6.4 20.9 0.00 0.00 0.00 79 1004.6
20260506151404 15 140 11.3 20.9 0.00 0.00 0.00 78 1004.3
20260506151308 15 143 12.9 20.9 0.00 0.00 0.00 77 1004.3
20260506151205 15 144 12.9 20.9 0.00 0.00 0.00 77 1004.2
20260506151105 15 140 14.5 20.9 0.00 0.00 0.00 76 1004.4
20260506151004 15 135 8.0 17.7 0.00 0.00 0.00 77 1004.2
20260506150905 16 134 12.9 17.7 0.00 0.00 0.00 76 1004.3
20260506150805 16 130 9.7 17.7 0.00 0.00 0.00 76 1004.3
20260506150605 16 121 6.4 17.7 0.00 0.00 0.00 76 1004.5
20260506150507 16 111 4.8 17.7 0.00 0.00 0.00 76 1004.4
20260506150405 16 111 9.7 17.7 0.00 0.00 0.00 76 1004.4
20260506150305 16 98 6.4 14.5 0.00 0.00 0.00 77 1004.4
20260506150205 17 89 8.0 14.5 0.00 0.00 0.00 75 1004.5
20260506150105 17 84 4.8 11.3 0.00 0.00 0.00 75 1004.2
20260506150005 17 77 3.2 11.3 0.00 0.00 0.00 74 1004.3
20260506145905 17 72 4.8 11.3 0.00 0.00 0.00 74 1004.4
20260506145804 17 65 6.4 11.3 0.00 0.00 0.00 72 1004.3
20260506145705 17 59 3.2 6.4 0.00 0.00 0.00 71 1004.3
20260506145605 17 65 1.6 6.4 0.00 0.00 0.00 69 1004.5
20260506145507 17 64 0.0 6.4 0.00 0.00 0.00 69 1004.3
20260506145404 18 72 0.0 6.4 0.00 0.00 0.00 68 1004.3
20260506145306 18 76 1.6 6.4 0.00 0.00 0.00 68 1004.3
20260506145204 18 87 3.2 6.4 0.00 0.00 0.00 67 1004.4
20260506145005 18 88 1.6 6.4 0.00 0.00 0.00 71 1004.4
20260506144904 18 82 0.0 6.4 0.00 0.00 0.00 69 1004.3
20260506144805 18 80 0.0 6.4 0.00 0.00 0.00 69 1004.3
20260506144705 18 74 0.0 6.4 0.00 0.00 0.00 68 1004.3
20260506144608 18 61 0.0 6.4 0.00 0.00 0.00 67 1004.3
20260506144505 18 59 3.2 6.4 0.00 0.00 0.00 68 1004.3
20260506144404 18 50 1.6 4.8 0.00 0.00 0.00 68 1004.3
20260506144305 17 42 1.6 4.8 0.00 0.00 0.00 66 1004.3
20260506144205 17 24 0.0 4.8 0.00 0.00 0.00 66 1004.3
20260506144104 17 20 0.0 4.8 0.00 0.00 0.00 68 1004.2
20260506144004 17 17 0.0 4.8 0.00 0.00 0.00 68 1004.2
20260506143905 17 4 1.6 4.8 0.00 0.00 0.00 69 1004.2
20260506143804 17 1 0.0 4.8 0.00 0.00 0.00 70 1004.4
20260506143705 17 1 1.6 4.8 0.00 0.00 0.00 69 1004.3
20260506143608 17 1 0.0 3.2 0.00 0.00 0.00 69 1004.3
20260506143505 17 1 0.0 3.2 0.00 0.00 0.00 69 1004.2
20260506143405 17 1 0.0 3.2 0.00 0.00 0.00 68 1004.4
20260506143305 17 1 0.0 3.2 0.00 0.00 0.00 67 1004.3
20260506143204 16 1 0.0 3.2 0.00 0.00 0.00 68 1004.4
20260506143104 16 1 0.0 3.2 0.00 0.00 0.00 71 1004.2
20260506143005 16 1 0.0 3.2 0.00 0.00 0.00 69 1004.3
20260506142905 16 1 0.0 4.8 0.00 0.00 0.00 68 1004.4
20260506142505 16 327 0.0 6.4 0.00 0.00 0.00 70 1004.4
20260506142404 16 327 0.0 6.4 0.00 0.00 0.00 70 1004.3
20260506142205 16 316 0.0 6.4 0.00 0.00 0.00 69 1004.3
20260506142104 16 306 0.0 6.4 0.00 0.00 0.00 69 1004.3
20260506142004 16 296 0.0 6.4 0.00 0.00 0.00 69 1004.3
20260506141904 16 294 0.0 6.4 0.00 0.00 0.00 71 1004.3
20260506141805 16 304 3.2 6.4 0.00 0.00 0.00 71 1004.3
20260506141708 16 315 3.2 6.4 0.00 0.00 0.00 72 1004.4
20260506141604 16 321 0.0 6.4 0.00 0.00 0.00 71 1004.3
20260506141505 16 321 0.0 6.4 0.00 0.00 0.00 71 1004.2
20260506141304 16 329 0.0 6.4 0.00 0.00 0.00 72 1004.3
20260506141105 16 339 1.6 6.4 0.00 0.00 0.00 71 1004.2
20260506141004 17 351 1.6 4.8 0.00 0.00 0.00 70 1004.4
20260506140707 17 339 0.0 6.4 0.00 0.00 0.00 70 1004.4
20260506140505 17 335 3.2 6.4 0.00 0.00 0.00 70 1004.2
20260506140405 17 335 1.6 6.4 0.00 0.00 0.00 70 1004.3
20260506140304 17 337 1.6 6.4 0.00 0.00 0.00 71 1004.4
20260506140205 17 339 0.0 6.4 0.00 0.00 0.00 71 1004.4
20260506140105 17 346 0.0 6.4 0.00 0.00 0.00 72 1004.2
20260506140005 17 351 0.0 6.4 0.00 0.00 0.00 72 1004.2
20260506135804 17 24 3.2 6.4 0.00 0.00 0.00 71 1004.4
20260506135605 17 65 1.6 6.4 0.00 0.00 0.00 70 1004.4
20260506135504 17 75 0.0 4.8 0.00 0.00 0.00 71 1004.3
20260506135405 17 74 0.0 4.8 0.00 0.00 0.00 70 1004.5
20260506135205 17 82 1.6 4.8 0.00 0.00 0.00 70 1004.5
20260506135104 17 88 0.0 3.2 0.00 0.00 0.00 71 1004.4
20260506135005 17 90 0.0 3.2 0.00 0.00 0.00 72 1004.5
20260506134905 17 90 0.0 3.2 0.00 0.00 0.00 71 1004.4
20260506134704 17 90 0.0 3.2 0.00 0.00 0.00 72 1004.4
20260506134505 16 93 0.0 4.8 0.00 0.00 0.00 72 1004.4
20260506134405 16 118 0.0 4.8 0.00 0.00 0.00 71 1004.4
20260506134304 16 139 0.0 4.8 0.00 0.00 0.00 72 1004.5
20260506134105 16 149 0.0 4.8 0.00 0.00 0.00 72 1004.5
20260506133904 16 148 0.0 4.8 0.00 0.00 0.00 73 1004.5
20260506133807 16 148 0.0 4.8 0.00 0.00 0.00 73 1004.4
20260506133704 16 148 0.0 4.8 0.00 0.00 0.00 72 1004.6
20260506133404 16 168 3.2 4.8 0.00 0.00 0.00 72 1004.5
20260506133305 16 147 0.0 3.2 0.00 0.00 0.00 74 1004.4
20260506133205 16 142 0.0 3.2 0.00 0.00 0.00 73 1004.5
20260506133104 16 135 1.6 3.2 0.00 0.00 0.00 72 1004.4
20260506133005 16 135 0.0 3.2 0.00 0.00 0.00 73 1004.5
20260506132904 16 135 0.0 3.2 0.00 0.00 0.00 73 1004.5
20260506132704 16 135 0.0 6.4 0.00 0.00 0.00 73 1004.5
20260506132605 16 135 0.0 6.4 0.00 0.00 0.00 74 1004.4
20260506132404 16 141 0.0 6.4 0.00 0.00 0.00 74 1004.6
20260506132307 16 147 1.6 6.4 0.00 0.00 0.00 74 1004.5
20260506132104 16 155 0.0 6.4 0.00 0.00 0.00 74 1004.5
20260506132005 16 157 0.0 6.4 0.00 0.00 0.00 75 1004.5
20260506131804 17 163 1.6 6.4 0.00 0.00 0.00 74 1004.5
20260506131705 17 171 0.0 6.4 0.00 0.00 0.00 74 1004.5
20260506131605 17 174 1.6 6.4 0.00 0.00 0.00 73 1004.5
20260506131504 17 179 3.2 6.4 0.00 0.00 0.00 72 1004.5
20260506131405 17 181 1.6 6.4 0.00 0.00 0.00 72 1004.5
20260506131305 17 181 1.6 6.4 0.00 0.00 0.00 72 1004.6
20260506131204 17 181 1.6 6.4 0.00 0.00 0.00 72 1004.5
20260506131105 17 181 0.0 4.8 0.00 0.00 0.00 71 1004.4
20260506131004 17 191 0.0 6.4 0.00 0.00 0.00 70 1004.4
20260506130904 17 207 0.0 6.4 0.00 0.00 0.00 70 1004.4
20260506130705 17 238 3.2 6.4 0.00 0.00 0.00 71 1004.4
20260506130605 16 240 0.0 6.4 0.00 0.00 0.00 71 1004.5
20260506130505 16 243 0.0 6.4 0.00 0.00 0.00 71 1004.4
20260506130404 16 244 0.0 6.4 0.00 0.00 0.00 71 1004.5
20260506130305 16 241 0.0 6.4 0.00 0.00 0.00 71 1004.6
20260506130104 16 250 1.6 6.4 0.00 0.00 0.00 71 1004.3
20260506130005 16 251 3.2 6.4 0.00 0.00 0.00 71 1004.4
20260506125904 16 251 3.2 6.4 0.00 0.00 0.00 71 1004.4
20260506125808 16 251 3.2 6.4 0.00 0.00 0.00 71 1004.4
20260506125705 16 244 3.2 6.4 0.00 0.00 0.00 71 1004.3
20260506125605 16 247 3.2 6.4 0.00 0.00 0.00 70 1004.3
20260506125505 16 253 1.6 6.4 0.00 0.00 0.00 71 1004.4
20260506125405 16 254 1.6 6.4 0.00 0.00 0.00 73 1004.4
20260506125205 16 253 1.6 6.4 0.00 0.00 0.00 72 1004.3
20260506125105 16 252 3.2 6.4 0.00 0.00 0.00 71 1004.4
20260506125005 16 246 0.0 6.4 0.00 0.00 0.00 72 1004.5
20260506124905 16 231 1.6 6.4 0.00 0.00 0.00 71 1004.4
20260506124808 16 219 3.2 4.8 0.00 0.00 0.00 71 1004.5
20260506124705 16 214 1.6 4.8 0.00 0.03 0.00 72 1004.5
20260506124604 16 216 0.0 4.8 0.00 0.03 0.00 73 1004.5
20260506124505 16 213 0.0 4.8 0.00 0.03 0.00 73 1004.5
20260506124405 16 214 0.0 6.4 0.00 0.03 0.00 70 1004.4
20260506124205 16 215 3.2 6.4 0.00 0.03 0.00 70 1004.6
20260506124005 16 203 1.6 6.4 0.00 0.03 0.00 72 1004.5
20260506123905 16 205 0.0 6.4 0.00 0.03 0.00 71 1004.5
20260506123808 16 204 0.0 6.4 0.00 0.03 0.00 72 1004.5
20260506123704 16 204 0.0 6.4 0.00 0.03 0.00 73 1004.4
20260506123605 16 202 1.6 6.4 0.00 0.03 0.00 71 1004.5
20260506123504 16 209 1.6 6.4 0.00 0.03 0.00 71 1004.3
20260506123405 16 221 3.2 6.4 0.00 0.03 0.00 71 1004.4
20260506123305 16 232 1.6 6.4 0.00 0.03 0.00 70 1004.5
20260506123204 16 236 1.6 6.4 0.00 0.03 0.00 70 1004.5
20260506123005 16 230 1.6 6.4 0.00 0.03 0.00 72 1004.6
20260506122904 16 226 1.6 6.4 0.00 0.03 0.00 70 1004.4
20260506122805 16 223 0.0 6.4 0.00 0.03 0.00 71 1004.6
20260506122605 16 206 0.0 6.4 0.00 0.03 0.00 71 1004.5
20260506122504 16 195 0.0 6.4 0.00 0.03 0.00 70 1004.4
20260506122405 16 165 3.2 6.4 0.00 0.03 0.00 71 1004.5
20260506122306 16 151 3.2 6.4 0.00 0.03 0.00 70 1004.5
20260506122204 16 146 1.6 8.0 0.00 0.03 0.00 71 1004.5
20260506121907 16 150 1.6 8.0 0.00 0.03 0.00 72 1004.5
20260506121805 16 154 3.2 8.0 0.00 0.03 0.00 74 1004.6
20260506121704 16 158 1.6 8.0 0.00 0.03 0.00 73 1004.5
20260506121605 16 157 0.0 8.0 0.00 0.03 0.00 71 1004.6
20260506121505 16 156 1.6 8.0 0.00 0.03 0.00 70 1004.5
20260506121404 16 161 3.2 8.0 0.00 0.03 0.00 72 1004.5
20260506121305 16 166 4.8 8.0 0.00 0.03 0.00 72 1004.5
20260506121205 16 172 3.2 6.4 0.00 0.03 0.00 73 1004.5
20260506121104 16 171 1.6 6.4 0.00 0.03 0.00 72 1004.5
20260506121005 16 170 1.6 4.8 0.00 0.03 0.00 72 1004.5
20260506120908 16 170 1.6 4.8 0.00 0.03 0.00 72 1004.6
20260506120805 16 171 1.6 6.4 0.00 0.03 0.00 72 1004.6
20260506120705 16 170 1.6 6.4 0.00 0.03 0.00 72 1004.4
20260506120605 16 174 1.6 6.4 0.00 0.03 0.00 73 1004.5
20260506120505 16 185 1.6 6.4 0.00 0.03 0.00 73 1004.6
20260506120305 16 198 0.0 6.4 0.00 0.03 0.00 71 1004.7
20260506120005 16 225 0.0 6.4 0.00 0.03 0.00 73 1004.6
20260506115908 16 239 0.0 6.4 0.00 0.03 0.00 73 1004.5
20260506115804 16 279 0.0 4.8 0.00 0.03 0.00 74 1004.6
20260506115704 16 294 0.0 4.8 0.00 0.03 0.00 74 1004.6
20260506115605 16 298 1.6 4.8 0.00 0.03 0.00 74 1004.7
20260506115505 16 303 1.6 4.8 0.00 0.03 0.00 74 1004.6
20260506115307 16 301 3.2 4.8 0.00 0.03 0.00 74 1004.6
20260506115105 16 293 1.6 4.8 0.00 0.03 0.00 73 1004.7
20260506115008 16 289 1.6 4.8 0.00 0.03 0.00 70 1004.9
20260506114905 16 279 1.6 4.8 0.00 0.03 0.00 69 1004.7
20260506114804 16 263 3.2 4.8 0.00 0.03 0.00 68 1004.6
20260506114705 16 248 1.6 4.8 0.00 0.03 0.00 68 1004.7
20260506114605 16 240 1.6 4.8 0.00 0.03 0.00 69 1004.7
20260506114505 16 232 3.2 4.8 0.00 0.03 0.00 67 1004.6
20260506114405 16 225 0.0 6.4 0.00 0.03 0.00 67 1004.5
20260506114305 16 225 0.0 6.4 0.00 0.03 0.00 68 1004.5
20260506114204 16 225 0.0 6.4 0.00 0.03 0.00 72 1004.6
20260506114108 16 228 0.0 6.4 0.00 0.03 0.00 73 1004.5
20260506114005 16 232 0.0 6.4 0.00 0.03 0.00 72 1004.6
20260506113904 16 237 0.0 6.4 0.00 0.03 0.00 74 1004.6
20260506113805 16 237 1.6 6.4 0.00 0.03 0.00 72 1004.5
20260506113604 16 240 0.0 6.4 0.00 0.03 0.00 73 1004.7
20260506113208 16 251 3.2 6.4 0.00 0.03 0.00 72 1004.6
20260506113105 16 250 1.6 6.4 0.00 0.03 0.00 69 1004.5
20260506113005 16 247 3.2 6.4 0.00 0.03 0.00 66 1004.5
20260506112905 16 247 0.0 6.4 0.00 0.03 0.00 71 1004.6
20260506112705 16 256 1.6 6.4 0.00 0.03 0.00 70 1004.7
20260506112604 16 255 1.6 6.4 0.00 0.03 0.00 70 1004.6
20260506112505 16 253 3.2 6.4 0.00 0.03 0.00 73 1004.7
20260506112405 16 247 1.6 4.8 0.00 0.03 0.00 72 1004.7
20260506112205 15 246 1.6 4.8 0.00 0.03 0.00 72 1004.8
20260506112108 15 250 3.2 4.8 0.00 0.03 0.00 74 1004.7
20260506111905 15 247 1.6 4.8 0.00 0.03 0.00 71 1004.8
20260506111804 15 241 1.6 6.4 0.00 0.03 0.00 72 1004.7
20260506111705 15 240 1.6 6.4 0.00 0.03 0.00 74 1004.6
20260506111605 15 243 0.0 6.4 0.00 0.03 0.00 75 1004.7
20260506111505 15 246 0.0 6.4 0.00 0.03 0.00 75 1004.8
20260506111404 15 253 1.6 6.4 0.00 0.03 0.00 75 1004.8
20260506111305 15 257 3.2 6.4 0.00 0.03 0.00 74 1004.7
20260506111208 15 253 0.0 6.4 0.00 0.03 0.00 77 1004.7
20260506111104 15 246 0.0 6.4 0.00 0.03 0.00 76 1004.8
20260506111005 15 243 0.0 6.4 0.00 0.03 0.00 78 1004.9
20260506110704 15 247 0.0 6.4 0.00 0.03 0.00 75 1004.9
20260506110605 15 245 1.6 4.8 0.00 0.03 0.00 78 1004.8
20260506110308 15 228 1.6 3.2 0.00 0.03 0.00 78 1004.9
20260506110205 15 236 1.6 3.2 0.00 0.03 0.00 80 1004.9
20260506110104 15 263 0.0 3.2 0.00 0.03 0.00 79 1004.9
20260506110005 15 286 1.6 4.8 0.00 0.03 0.00 79 1005.0
20260506105904 15 300 0.0 4.8 0.00 0.03 0.00 78 1005.1
20260506105805 15 305 0.0 4.8 0.00 0.03 0.00 79 1005.0
20260506105504 15 330 0.0 4.8 0.00 0.03 0.00 78 1005.0
20260506105408 15 334 0.0 4.8 0.00 0.03 0.00 78 1005.1
20260506105305 15 338 0.0 4.8 0.00 0.03 0.00 77 1005.0
20260506105204 15 342 0.0 4.8 0.00 0.03 0.00 77 1005.1
20260506105105 15 343 0.0 4.8 0.00 0.03 0.00 76 1005.1
20260506105005 15 348 3.2 4.8 0.00 0.03 0.00 77 1005.2
20260506104905 15 354 3.2 4.8 0.00 0.03 0.00 78 1005.1
20260506104805 15 1 1.6 4.8 0.00 0.03 0.00 79 1005.2
20260506104705 15 1 1.6 4.8 0.00 0.03 0.00 79 1005.1
20260506104605 15 347 0.0 4.8 0.00 0.03 0.00 79 1005.2
20260506104504 15 338 0.0 4.8 0.00 0.03 0.00 78 1005.2
20260506104408 15 333 1.6 4.8 0.00 0.03 0.00 78 1005.2
20260506104305 15 322 3.2 4.8 0.00 0.03 0.00 76 1005.2
20260506104205 15 309 1.6 4.8 0.00 0.03 0.00 77 1005.3
20260506104105 15 307 0.0 6.4 0.00 0.03 0.00 79 1005.3
20260506103904 15 298 0.0 6.4 0.00 0.03 0.00 77 1005.3
20260506103805 15 291 0.0 6.4 0.00 0.03 0.00 78 1005.3
20260506103705 15 285 1.6 6.4 0.00 0.03 0.00 77 1005.2
20260506103508 15 300 0.0 6.4 0.00 0.03 0.00 77 1005.3
20260506103205 15 294 1.6 9.7 0.00 0.03 0.00 77 1005.4
20260506103105 15 287 3.2 9.7 0.00 0.03 0.00 77 1005.4
20260506102905 15 285 0.0 9.7 0.00 0.03 0.00 78 1005.5
20260506102805 15 288 0.0 9.7 0.00 0.03 0.00 77 1005.4
20260506102705 15 290 1.6 9.7 0.00 0.03 0.00 76 1005.4
20260506102608 15 284 1.6 9.7 0.00 0.03 0.00 76 1005.5
20260506102505 15 279 1.6 9.7 0.00 0.03 0.00 75 1005.4
20260506102306 15 277 1.6 9.7 0.00 0.03 0.00 77 1005.5
20260506102205 15 280 3.2 8.0 0.00 0.03 0.00 75 1005.5
20260506102104 15 282 3.2 8.0 0.00 0.03 0.00 74 1005.5
20260506102005 15 283 0.0 8.0 0.00 0.03 0.00 76 1005.5
20260506101904 15 283 1.6 8.0 0.00 0.03 0.00 76 1005.4
20260506101805 15 282 0.0 8.0 0.00 0.03 0.00 77 1005.4
20260506101608 15 284 4.8 8.0 0.00 0.03 0.00 75 1005.5
20260506101505 15 281 1.6 6.4 0.00 0.03 0.00 75 1005.5
20260506101405 15 273 0.0 6.4 0.00 0.03 0.00 76 1005.4
20260506101305 15 273 0.0 6.4 0.00 0.03 0.00 76 1005.5
20260506101205 15 270 0.0 6.4 0.00 0.03 0.00 75 1005.4
20260506101104 15 270 0.0 6.4 0.00 0.03 0.00 77 1005.5
20260506101005 15 270 0.0 6.4 0.00 0.03 0.00 77 1005.5
20260506100904 15 270 3.2 6.4 0.00 0.03 0.00 77 1005.5
20260506100804 15 270 0.0 6.4 0.00 0.03 0.00 77 1005.5
20260506100708 15 270 0.0 6.4 0.00 0.03 0.00 76 1005.5
20260506100605 15 270 1.6 6.4 0.00 0.03 0.00 76 1005.4
20260506100504 15 270 1.6 6.4 0.00 0.03 0.00 76 1005.4
20260506100405 15 270 3.2 6.4 0.00 0.03 0.00 76 1005.5
20260506100304 15 271 0.0 6.4 0.00 0.03 0.00 77 1005.4
20260506100105 15 280 3.2 6.4 0.00 0.03 0.00 77 1005.6
20260506100005 15 279 3.2 6.4 0.00 0.03 0.00 77 1005.5
20260506095805 15 279 3.2 6.4 0.00 0.03 0.00 77 1005.4
20260506095707 15 280 3.2 6.4 0.00 0.03 0.00 76 1005.6
20260506095605 15 279 0.0 6.4 0.00 0.03 0.00 77 1005.5
20260506095505 15 278 0.0 6.4 0.00 0.03 0.00 77 1005.4
20260506095404 15 277 0.0 6.4 0.00 0.03 0.00 77 1005.6
20260506095306 15 276 1.6 6.4 0.00 0.03 0.00 78 1005.5
20260506095205 15 268 1.6 6.4 0.00 0.03 0.00 78 1005.4
20260506095104 15 261 1.6 6.4 0.00 0.03 0.00 77 1005.5
20260506095005 15 260 3.2 6.4 0.00 0.03 0.00 78 1005.4
20260506094804 15 261 1.6 6.4 0.00 0.03 0.00 78 1005.5
20260506094504 15 261 3.2 6.4 0.00 0.03 0.00 77 1005.5
20260506094405 15 261 1.6 6.4 0.00 0.03 0.00 77 1005.4
20260506094205 15 258 0.0 11.3 0.00 0.03 0.00 75 1005.6
20260506094105 15 260 0.0 11.3 0.00 0.03 0.00 77 1005.5
20260506094004 15 260 3.2 11.3 0.00 0.03 0.00 77 1005.4
20260506093905 15 259 1.6 11.3 0.00 0.03 0.00 78 1005.4
20260506093805 15 257 3.2 11.3 0.00 0.03 0.00 78 1005.6
20260506093705 15 256 3.2 11.3 0.00 0.03 0.00 78 1005.4
20260506093605 15 255 3.2 11.3 0.00 0.03 0.00 77 1005.4
20260506093507 15 255 1.6 11.3 0.00 0.03 0.00 78 1005.5
20260506093305 15 253 6.4 11.3 0.00 0.03 0.00 77 1005.6
20260506093205 15 264 4.8 8.0 0.00 0.03 0.00 76 1005.4
20260506093104 15 270 1.6 4.8 0.00 0.03 0.00 76 1005.5
20260506093005 15 270 0.0 4.8 0.00 0.03 0.00 76 1005.4
20260506092904 15 270 0.0 6.4 0.00 0.03 0.00 78 1005.5
20260506092704 15 266 1.6 6.4 0.00 0.03 0.00 77 1005.5
20260506092608 15 266 3.2 6.4 0.00 0.03 0.00 78 1005.4
20260506092505 15 265 1.6 6.4 0.00 0.03 0.00 78 1005.5
20260506092306 15 265 0.0 6.4 0.00 0.03 0.00 77 1005.5
20260506092205 15 265 0.0 6.4 0.00 0.03 0.00 78 1005.5
20260506092104 15 264 0.0 6.4 0.00 0.03 0.00 77 1005.4
20260506092005 15 262 3.2 6.4 0.00 0.03 0.00 78 1005.5
20260506091905 15 253 3.2 6.4 0.00 0.03 0.00 78 1005.5
20260506091704 15 217 0.0 4.8 0.00 0.03 0.00 77 1005.5
20260506091608 15 200 0.0 4.8 0.00 0.03 0.00 77 1005.5
20260506091305 15 148 0.0 3.2 0.00 0.03 0.00 79 1005.3
20260506091205 14 149 0.0 3.2 0.00 0.03 0.00 80 1005.3
20260506091004 14 150 0.0 3.2 0.00 0.03 0.00 80 1005.3
20260506090905 14 152 0.0 3.2 0.00 0.03 0.00 80 1005.4
20260506090805 14 156 0.0 3.2 0.00 0.03 0.00 80 1005.3
20260506090704 14 160 0.0 3.2 0.00 0.03 0.00 82 1005.4
20260506090608 14 160 0.0 3.2 0.00 0.03 0.00 83 1005.3
20260506090505 14 148 1.6 3.2 0.00 0.03 0.00 82 1005.3
20260506090405 14 148 1.6 3.2 0.00 0.03 0.00 81 1005.4
20260506090304 14 144 0.0 3.2 0.00 0.03 0.00 80 1005.5
20260506090205 14 157 0.0 4.8 0.00 0.03 0.00 82 1005.5
20260506090105 14 163 0.0 4.8 0.00 0.03 0.00 83 1005.4
20260506085905 13 159 0.0 4.8 0.00 0.03 0.00 82 1005.3
20260506085805 13 154 0.0 4.8 0.00 0.03 0.00 82 1005.4
20260506085705 13 154 0.0 4.8 0.00 0.03 0.00 81 1005.5
20260506085604 13 158 0.0 4.8 0.00 0.03 0.00 82 1005.3
20260506085507 13 154 0.0 6.4 0.00 0.03 0.00 83 1005.4
20260506085405 13 153 1.6 6.4 0.00 0.03 0.00 83 1005.3
20260506085306 13 151 0.0 6.4 0.00 0.03 0.00 83 1005.5
20260506085204 13 147 3.2 6.4 0.00 0.03 0.00 83 1005.3
20260506085105 13 140 0.0 6.4 0.00 0.03 0.00 85 1005.2
20260506085004 13 136 0.0 6.4 0.00 0.03 0.00 85 1005.4
20260506084705 13 129 3.2 6.4 0.00 0.03 0.00 85 1005.2
20260506084607 13 118 3.2 6.4 0.00 0.03 0.00 85 1005.3